Darstellungsparameter: Aktuell verwendete Einstellungen:
Skalierung der Graphiken ... ?
xyx+y,   Skalierungsfaktor:      Skalierung: Modus: x, Faktor: 1
Darstellungszeitraum ... ?
Vom - - bis: - -   Zeitraum: 07.12.2009 - 06.12.2012
Min/Max/Avg-Anzeige ... ?
Zeige MMA aktuell
Zeige MMA Monat
Zeige MMA alles
Zeige --A aktuell
Zeige --A Monat
Zeige --A alles
Keine MMA-Anzeige
MMA:
Keine MMA-Graphiken
MMA-Basis: 07.12.2009 - 06.12.2012
Quicknavigation für Darstellung... ?
Tage:      1T, 2T, 3T, 5T -1T -2T -3T -5T +1T +2T +3T +5T
Wochen: 1W, 2W, 3W -1W -2W -3W +1W +2W +3W
Monate: 1M, 3M, 6M -1M -3M -6M +1M +3M +6M
Jahre:    1J, 3J, 5J, 10J -1J -3J -5J -10J +1J +3J +5J +10J
Nutze für die Darstellung ... ?
Originaldaten oder ...
Mittelwerte Minima Maxima auf...
Stundenbasis Tagesbasis Wochenbasis
Monatsbasis Jahresbasis      Datenbasis: Mittelwerte auf Tagesbasis
Darstellen als:
Statistik (Auto) Statistik J:M      Darstellung:
Zur Graphik,    zurück zur Übersicht aller Sensoren.
 
Tabellarische Datenbersicht: ?
 
Sensor: Nr:Datum:Temp:Abs-Feuchte:Windchill:Wind:
Aussen-T/F 1 07-12-2009 00:00:00 5.59917 C 6.01 g/m*3 5.6 C 0 km/h
2 08-12-2009 00:00:00 6.95833 C 6.27 g/m*3 6.96 C 0 km/h
3 09-12-2009 00:00:00 7.2525 C 6.19 g/m*3 7.25 C 0 km/h
4 10-12-2009 00:00:00 8.78583 C 6.99 g/m*3 8.79 C 0 km/h
5 11-12-2009 00:00:00 6.665 C 6.16 g/m*3 6.67 C 0 km/h
6 12-12-2009 00:00:00 3.47833 C 5.29 g/m*3 3.48 C 0 km/h
7 13-12-2009 00:00:00 1.50924 C 3.54 g/m*3 1.51 C 0 km/h
8 14-12-2009 00:00:00 -0.80667 C 2.67 g/m*3 -0.81 C 0 km/h
9 15-12-2009 00:00:00 -0.50083 C 2.88 g/m*3 -0.5 C 0 km/h
10 16-12-2009 00:00:00 -1.19917 C 2.79 g/m*3 -1.2 C 0 km/h
11 17-12-2009 00:00:00 -4.445 C 2.62 g/m*3 -4.45 C 0 km/h
12 18-12-2009 00:00:00 -5.04417 C 2.34 g/m*3 -5.04 C 0 km/h
13 19-12-2009 00:00:00 -12.79 C 1.12 g/m*3 -12.79 C 0 km/h
14 20-12-2009 00:00:00 -8.03917 C 1.87 g/m*3 -8.04 C 0 km/h
15 21-12-2009 00:00:00 -2.18417 C 3.25 g/m*3 -2.18 C 0 km/h
16 22-12-2009 00:00:00 2.7175 C 5.09 g/m*3 2.72 C 0 km/h
17 23-12-2009 00:00:00 0.49333 C 4.68 g/m*3 0.49 C 0 km/h
18 24-12-2009 00:00:00 2.31333 C 5.15 g/m*3 2.31 C 0 km/h
19 25-12-2009 00:00:00 4.38824 C 5.08 g/m*3 4.39 C 0 km/h
20 26-12-2009 00:00:00 2.04583 C 4.45 g/m*3 2.05 C 0 km/h
21 27-12-2009 00:00:00 0.5475 C 4.38 g/m*3 0.55 C 0 km/h
22 28-12-2009 00:00:00 3.1425 C 4.49 g/m*3 3.14 C 0 km/h
23 29-12-2009 00:00:00 0.4625 C 4.61 g/m*3 0.46 C 0 km/h
24 30-12-2009 00:00:00 7.05667 C 7.27 g/m*3 7.06 C 0 km/h
25 31-12-2009 00:00:00 5.32667 C 6.59 g/m*3 5.33 C 0 km/h
Sensor: Nr:Datum:Temp:Abs-Feuchte:Windchill:Wind:
Aussen-T/F 26 01-01-2010 00:00:00 -0.1725 C 4.38 g/m*3 -0.17 C 0 km/h
27 02-01-2010 00:00:00 -1.51083 C 3.34 g/m*3 -1.51 C 0 km/h
28 03-01-2010 00:00:00 -1.79667 C 3.45 g/m*3 -1.8 C 0 km/h
29 04-01-2010 00:00:00 -5.24083 C 2.41 g/m*3 -5.24 C 0 km/h
30 05-01-2010 00:00:00 -8.00083 C 2.22 g/m*3 -8 C 0 km/h
31 06-01-2010 00:00:00 -6.88917 C 2.25 g/m*3 -6.89 C 0 km/h
32 07-01-2010 00:00:00 -3.75966 C 2.79 g/m*3 -3.76 C 0 km/h
33 08-01-2010 00:00:00 -4.82167 C 2.54 g/m*3 -4.82 C 0 km/h
34 09-01-2010 00:00:00 -2.655 C 3.05 g/m*3 -2.66 C 0 km/h
35 10-01-2010 00:00:00 -1.87083 C 3.27 g/m*3 -1.87 C 0 km/h
36 11-01-2010 00:00:00 -1.42833 C 3.62 g/m*3 -1.43 C 0 km/h
37 12-01-2010 00:00:00 -1.65833 C 3.4 g/m*3 -1.66 C 0 km/h
38 13-01-2010 00:00:00 -2.2325 C 2.99 g/m*3 -2.23 C 0 km/h
39 14-01-2010 00:00:00 0.35417 C 3.98 g/m*3 0.35 C 0 km/h
40 15-01-2010 00:00:00 0.87333 C 4.07 g/m*3 0.87 C 0 km/h
41 16-01-2010 00:00:00 -0.11833 C 3.75 g/m*3 -0.12 C 0 km/h
42 17-01-2010 00:00:00 2.09667 C 5.1 g/m*3 2.1 C 0 km/h
43 18-01-2010 00:00:00 3.38333 C 5.07 g/m*3 3.38 C 0 km/h
44 19-01-2010 00:00:00 2.24583 C 5.1 g/m*3 2.25 C 0 km/h
45 20-01-2010 00:00:00 1.97417 C 4.66 g/m*3 1.97 C 0 km/h
46 21-01-2010 00:00:00 2.45126 C 4.02 g/m*3 2.45 C 0 km/h
47 22-01-2010 00:00:00 2.93667 C 4.24 g/m*3 2.94 C 0 km/h
48 23-01-2010 00:00:00 -0.41333 C 3.36 g/m*3 -0.41 C 0 km/h
49 24-01-2010 00:00:00 0.27167 C 4.06 g/m*3 0.27 C 0 km/h
50 25-01-2010 00:00:00 0.01667 C 4.19 g/m*3 0.02 C 0 km/h
Sensor: Nr:Datum:Temp:Abs-Feuchte:Windchill:Wind:
Aussen-T/F 51 26-01-2010 00:00:00 -3.325 C 2.8 g/m*3 -3.33 C 0 km/h
52 27-01-2010 00:00:00 -5.54083 C 2.18 g/m*3 -5.54 C 0 km/h
53 28-01-2010 00:00:00 1.20667 C 4.04 g/m*3 1.21 C 0 km/h
54 29-01-2010 00:00:00 1.39083 C 4.5 g/m*3 1.39 C 0 km/h
55 30-01-2010 00:00:00 -1.54583 C 3.39 g/m*3 -1.55 C 0 km/h
56 31-01-2010 00:00:00 -1.62333 C 3.2 g/m*3 -1.62 C 0 km/h
57 01-02-2010 00:00:00 0.20167 C 3.69 g/m*3 0.2 C 0 km/h
58 02-02-2010 00:00:00 0.69916 C 4 g/m*3 0.7 C 0 km/h
59 03-02-2010 00:00:00 2.28899 C 5.05 g/m*3 2.29 C 0 km/h
60 04-02-2010 00:00:00 4.17018 C 5.55 g/m*3 4.17 C 0 km/h
61 05-02-2010 00:00:00 3.29649 C 4.9 g/m*3 3.3 C 0 km/h
62 06-02-2010 00:00:00 4.55172 C 5.47 g/m*3 4.55 C 0 km/h
63 07-02-2010 00:00:00 4.17018 C 5.02 g/m*3 4.17 C 0 km/h
64 08-02-2010 00:00:00 -0.75 C 2.85 g/m*3 -0.75 C 0 km/h
65 09-02-2010 00:00:00 -3.74483 C 2.17 g/m*3 -3.74 C 0 km/h
66 10-02-2010 00:00:00 -4.8 C 2.32 g/m*3 -4.8 C 0 km/h
67 11-02-2010 00:00:00 -3.79828 C 2.62 g/m*3 -3.8 C 0 km/h
68 12-02-2010 00:00:00 -2.14737 C 2.95 g/m*3 -2.15 C 0 km/h
69 13-02-2010 00:00:00 -2.57414 C 2.82 g/m*3 -2.57 C 0 km/h
70 14-02-2010 00:00:00 -2.13621 C 3.1 g/m*3 -2.14 C 0 km/h
71 15-02-2010 00:00:00 -1.12632 C 3.21 g/m*3 -1.13 C 0 km/h
72 16-02-2010 00:00:00 -1.16379 C 3.02 g/m*3 -1.16 C 0 km/h
73 17-02-2010 00:00:00 -1.61754 C 3.18 g/m*3 -1.62 C 0 km/h
74 18-02-2010 00:00:00 3.2569 C 4.56 g/m*3 3.26 C 0 km/h
75 19-02-2010 00:00:00 3.59375 C 4.12 g/m*3 3.59 C 0 km/h
Sensor: Nr:Datum:Temp:Abs-Feuchte:Windchill:Wind:
Aussen-T/F 76 20-02-2010 00:00:00 1.69333 C 3.53 g/m*3 1.69 C 0 km/h
77 21-02-2010 00:00:00 2.87833 C 4.25 g/m*3 2.88 C 0 km/h
78 22-02-2010 00:00:00 6.76417 C 5.24 g/m*3 6.76 C 0 km/h
79 23-02-2010 00:00:00 9.7875 C 7.07 g/m*3 9.79 C 0 km/h
80 24-02-2010 00:00:00 9.55 C 6.5 g/m*3 9.55 C 0 km/h
81 25-02-2010 00:00:00 9.58 C 5.92 g/m*3 9.58 C 0 km/h
82 26-02-2010 00:00:00 8.62667 C 5.33 g/m*3 8.63 C 0 km/h
83 27-02-2010 00:00:00 8.4025 C 4.07 g/m*3 8.4 C 0 km/h
84 28-02-2010 00:00:00 8.30667 C 5.5 g/m*3 8.31 C 0 km/h
85 01-03-2010 00:00:00 5.40917 C 3.85 g/m*3 5.41 C 0 km/h
86 02-03-2010 00:00:00 3.135 C 3.87 g/m*3 3.14 C 0 km/h
87 03-03-2010 00:00:00 2.9925 C 3.33 g/m*3 2.99 C 0 km/h
88 04-03-2010 00:00:00 2.47395 C 2.67 g/m*3 2.47 C 0 km/h
89 05-03-2010 00:00:00 0.77667 C 2.41 g/m*3 0.78 C 0 km/h
90 06-03-2010 00:00:00 -0.47083 C 3.38 g/m*3 -0.47 C 0 km/h
91 07-03-2010 00:00:00 -1.6825 C 2.27 g/m*3 -1.68 C 0 km/h
92 08-03-2010 00:00:00 -1.21083 C 1.92 g/m*3 -1.21 C 0 km/h
93 09-03-2010 00:00:00 -0.87167 C 1.76 g/m*3 -0.87 C 0 km/h
94 10-03-2010 00:00:00 1.41667 C 1.75 g/m*3 1.42 C 0 km/h
95 11-03-2010 00:00:00 0.40167 C 2.56 g/m*3 0.4 C 0 km/h
96 12-03-2010 00:00:00 1.61167 C 3.86 g/m*3 1.61 C 0 km/h
97 13-03-2010 00:00:00 4.36583 C 4.23 g/m*3 4.37 C 0 km/h
98 14-03-2010 00:00:00 5.79833 C 4.06 g/m*3 5.8 C 0 km/h
99 15-03-2010 00:00:00 6.445 C 5.04 g/m*3 6.45 C 0 km/h
100 16-03-2010 00:00:00 6.08067 C 5.63 g/m*3 6.08 C 0 km/h
Sensor: Nr:Datum:Temp:Abs-Feuchte:Windchill:Wind:
Aussen-T/F 101 17-03-2010 00:00:00 6.69417 C 4.48 g/m*3 6.69 C 0 km/h
102 18-03-2010 00:00:00 10.12333 C 4.54 g/m*3 10.12 C 0 km/h
103 19-03-2010 00:00:00 15.0225 C 4.66 g/m*3 15.02 C 0 km/h
104 20-03-2010 00:00:00 14.37667 C 8.46 g/m*3 14.38 C 0 km/h
105 21-03-2010 00:00:00 11.23667 C 8.65 g/m*3 11.24 C 0 km/h
106 22-03-2010 00:00:00 9.7575 C 7.03 g/m*3 9.76 C 0 km/h
107 23-03-2010 00:00:00 8.94 C 6.12 g/m*3 8.94 C 0 km/h
108 24-03-2010 00:00:00 11.9975 C 6.24 g/m*3 12 C 0 km/h
109 25-03-2010 00:00:00 14.27083 C 6.52 g/m*3 14.27 C 0 km/h
110 26-03-2010 00:00:00 10.0325 C 7.02 g/m*3 10.03 C 0 km/h
111 27-03-2010 00:00:00 9.34333 C 5.7 g/m*3 9.34 C 0 km/h
112 28-03-2010 00:00:00 9.93478 C 6.19 g/m*3 9.93 C 0 km/h
113 29-03-2010 00:00:00 11.88167 C 8.04 g/m*3 11.88 C 0 km/h
114 30-03-2010 00:00:00 12.70672 C 6.43 g/m*3 12.71 C 0 km/h
115 31-03-2010 00:00:00 8.18667 C 4.45 g/m*3 8.19 C 0 km/h
116 01-04-2010 00:00:00 5.84333 C 3.76 g/m*3 5.84 C 0 km/h
117 02-04-2010 00:00:00 6.48583 C 4.37 g/m*3 6.49 C 0 km/h
118 03-04-2010 00:00:00 9.73667 C 5.47 g/m*3 9.74 C 0 km/h
119 04-04-2010 00:00:00 8.98833 C 5.25 g/m*3 8.99 C 0 km/h
120 05-04-2010 00:00:00 9.15083 C 4.56 g/m*3 9.15 C 0 km/h
121 06-04-2010 00:00:00 10.38167 C 4.41 g/m*3 10.38 C 0 km/h
122 07-04-2010 00:00:00 13.61167 C 5.07 g/m*3 13.61 C 0 km/h
123 08-04-2010 00:00:00 12.375 C 6.96 g/m*3 12.38 C 0 km/h
124 09-04-2010 00:00:00 11.49917 C 5.91 g/m*3 11.5 C 0 km/h
125 10-04-2010 00:00:00 11.3575 C 4.66 g/m*3 11.36 C 0 km/h
Sensor: Nr:Datum:Temp:Abs-Feuchte:Windchill:Wind:
Aussen-T/F 126 11-04-2010 00:00:00 7.86667 C 4.35 g/m*3 7.87 C 0 km/h
127 12-04-2010 00:00:00 7.44958 C 5.35 g/m*3 7.45 C 0 km/h
128 13-04-2010 00:00:00 11.85583 C 6.16 g/m*3 11.86 C 0 km/h
129 14-04-2010 00:00:00 11.76417 C 4.66 g/m*3 11.76 C 0 km/h
130 15-04-2010 00:00:00 11.8575 C 5 g/m*3 11.86 C 0 km/h
131 16-04-2010 00:00:00 9.71583 C 4.32 g/m*3 9.72 C 0 km/h
132 17-04-2010 00:00:00 11.1225 C 4.54 g/m*3 11.12 C 0 km/h
133 18-04-2010 00:00:00 13.27917 C 4.52 g/m*3 13.28 C 0 km/h
134 19-04-2010 00:00:00 11.18333 C 5.12 g/m*3 11.18 C 0 km/h
135 20-04-2010 00:00:00 11.13833 C 5.11 g/m*3 11.14 C 0 km/h
136 21-04-2010 00:00:00 7.34417 C 3.84 g/m*3 7.34 C 0 km/h
137 22-04-2010 00:00:00 8.35333 C 3.82 g/m*3 8.35 C 0 km/h
138 23-04-2010 00:00:00 11.44917 C 4.09 g/m*3 11.45 C 0 km/h
139 24-04-2010 00:00:00 14.91167 C 4.56 g/m*3 14.91 C 0 km/h
140 25-04-2010 00:00:00 17.1075 C 5.25 g/m*3 17.11 C 0 km/h
141 26-04-2010 00:00:00 15.72269 C 7.07 g/m*3 15.72 C 0 km/h
142 27-04-2010 00:00:00 15.50417 C 6.31 g/m*3 15.5 C 0 km/h
143 28-04-2010 00:00:00 16.8925 C 6.33 g/m*3 16.89 C 0 km/h
144 29-04-2010 00:00:00 19.21417 C 6.68 g/m*3 19.21 C 0 km/h
145 30-04-2010 00:00:00 18.69583 C 7.11 g/m*3 18.7 C 0 km/h
146 01-05-2010 00:00:00 15.09917 C 6.78 g/m*3 15.1 C 0 km/h
147 02-05-2010 00:00:00 13.48583 C 7.64 g/m*3 13.49 C 0 km/h
148 03-05-2010 00:00:00 10.01667 C 6.94 g/m*3 10.02 C 0 km/h
149 04-05-2010 00:00:00 9.78833 C 5.53 g/m*3 9.79 C 0 km/h
150 05-05-2010 00:00:00 10.09083 C 3.78 g/m*3 10.09 C 0 km/h
Sensor: Nr:Datum:Temp:Abs-Feuchte:Windchill:Wind:
Aussen-T/F 151 06-05-2010 00:00:00 6.68167 C 6.78 g/m*3 6.68 C 0 km/h
152 07-05-2010 00:00:00 6.49417 C 6.66 g/m*3 6.49 C 0 km/h
153 08-05-2010 00:00:00 11.06218 C 6.38 g/m*3 11.06 C 0 km/h
154 09-05-2010 00:00:00 12.575 C 6.93 g/m*3 12.58 C 0 km/h
155 10-05-2010 00:00:00 11.99917 C 6.67 g/m*3 12 C 0 km/h
156 11-05-2010 00:00:00 11.53167 C 6.84 g/m*3 11.53 C 0 km/h
157 12-05-2010 00:00:00 8.62333 C 6.33 g/m*3 8.62 C 0 km/h
158 13-05-2010 00:00:00 8.07667 C 6.31 g/m*3 8.08 C 0 km/h
159 14-05-2010 00:00:00 8.97333 C 7.22 g/m*3 8.97 C 0 km/h
160 15-05-2010 00:00:00 10.6825 C 5.92 g/m*3 10.68 C 0 km/h
161 16-05-2010 00:00:00 13.32917 C 5.32 g/m*3 13.33 C 0 km/h
162 17-05-2010 00:00:00 10.56917 C 7.13 g/m*3 10.57 C 0 km/h
163 18-05-2010 00:00:00 11.44333 C 6.07 g/m*3 11.44 C 0 km/h
164 19-05-2010 00:00:00 10.30583 C 6.32 g/m*3 10.31 C 0 km/h
165 20-05-2010 00:00:00 12.64034 C 6.31 g/m*3 12.64 C 0 km/h
166 21-05-2010 00:00:00 16.54333 C 7.66 g/m*3 16.54 C 0 km/h
167 22-05-2010 00:00:00 18.32583 C 7.75 g/m*3 18.33 C 0 km/h
168 23-05-2010 00:00:00 20.32083 C 8.65 g/m*3 20.32 C 0 km/h
169 24-05-2010 00:00:00 21.23 C 8.94 g/m*3 21.23 C 0 km/h
170 25-05-2010 00:00:00 20.64583 C 7.99 g/m*3 20.65 C 0 km/h
171 26-05-2010 00:00:00 15.41917 C 9.07 g/m*3 15.42 C 0 km/h
172 27-05-2010 00:00:00 15.6175 C 8.18 g/m*3 15.62 C 0 km/h
173 28-05-2010 00:00:00 17.3075 C 7.94 g/m*3 17.31 C 0 km/h
174 29-05-2010 00:00:00 16.34 C 7.23 g/m*3 16.34 C 0 km/h
175 30-05-2010 00:00:00 14.5975 C 8.93 g/m*3 14.6 C 0 km/h
Sensor: Nr:Datum:Temp:Abs-Feuchte:Windchill:Wind:
Aussen-T/F 176 31-05-2010 00:00:00 11.56667 C 8.16 g/m*3 11.57 C 0 km/h
177 01-06-2010 00:00:00 16.01833 C 8.41 g/m*3 16.02 C 0 km/h
178 02-06-2010 00:00:00 17.66471 C 7.79 g/m*3 17.66 C 0 km/h
179 03-06-2010 00:00:00 20.49083 C 7.88 g/m*3 20.49 C 0 km/h
180 04-06-2010 00:00:00 21.43 C 7.91 g/m*3 21.43 C 0 km/h
181 05-06-2010 00:00:00 22.97667 C 8.82 g/m*3 22.98 C 0 km/h
182 06-06-2010 00:00:00 20.91333 C 11.1 g/m*3 20.91 C 0 km/h
183 07-06-2010 00:00:00 19.58833 C 9.05 g/m*3 19.59 C 0 km/h
184 08-06-2010 00:00:00 19.76833 C 9.52 g/m*3 19.77 C 0 km/h
185 09-06-2010 00:00:00 22.5625 C 11.34 g/m*3 22.56 C 0 km/h
186 10-06-2010 00:00:00 22.76417 C 13.55 g/m*3 22.76 C 0 km/h
187 11-06-2010 00:00:00 22.89167 C 11.59 g/m*3 22.89 C 0 km/h
188 12-06-2010 00:00:00 18.84917 C 10.25 g/m*3 18.85 C 0 km/h
189 13-06-2010 00:00:00 18.25083 C 7.8 g/m*3 18.25 C 0 km/h
190 14-06-2010 00:00:00 19.76667 C 7.8 g/m*3 19.77 C 0 km/h
191 15-06-2010 00:00:00 18.9 C 8.06 g/m*3 18.9 C 0 km/h
192 16-06-2010 00:00:00 18.82833 C 6.18 g/m*3 18.83 C 0 km/h
193 17-06-2010 00:00:00 15.08583 C 9.23 g/m*3 15.09 C 0 km/h
194 18-06-2010 00:00:00 15.2325 C 9.35 g/m*3 15.23 C 0 km/h
195 19-06-2010 00:00:00 14.2725 C 6.27 g/m*3 14.27 C 0 km/h
196 20-06-2010 00:00:00 13.20333 C 6.8 g/m*3 13.2 C 0 km/h
197 21-06-2010 00:00:00 14.11083 C 6.37 g/m*3 14.11 C 0 km/h
198 22-06-2010 00:00:00 17.38667 C 7.03 g/m*3 17.39 C 0 km/h
199 23-06-2010 00:00:00 19.75917 C 8.12 g/m*3 19.76 C 0 km/h
200 24-06-2010 00:00:00 22.54833 C 8.68 g/m*3 22.55 C 0 km/h
Sensor: Nr:Datum:Temp:Abs-Feuchte:Windchill:Wind:
Aussen-T/F 201 25-06-2010 00:00:00 23.37 C 8.65 g/m*3 23.37 C 0 km/h
202 26-06-2010 00:00:00 23.635 C 8.77 g/m*3 23.64 C 0 km/h
203 27-06-2010 00:00:00 24.49417 C 9.01 g/m*3 24.49 C 0 km/h
204 28-06-2010 00:00:00 25.25546 C 9.1 g/m*3 25.26 C 0 km/h
205 29-06-2010 00:00:00 24.86167 C 9.83 g/m*3 24.86 C 0 km/h
206 30-06-2010 00:00:00 24.6175 C 10.06 g/m*3 24.62 C 0 km/h
207 01-07-2010 00:00:00 25.8425 C 9.72 g/m*3 25.84 C 0 km/h
208 02-07-2010 00:00:00 26.96667 C 9.63 g/m*3 26.97 C 0 km/h
209 03-07-2010 00:00:00 26.33 C 11.31 g/m*3 26.33 C 0 km/h
210 04-07-2010 00:00:00 26.44833 C 12.05 g/m*3 26.45 C 0 km/h
211 05-07-2010 00:00:00 22.02083 C 9.04 g/m*3 22.02 C 0 km/h
212 06-07-2010 00:00:00 20.17833 C 8.34 g/m*3 20.18 C 0 km/h
213 07-07-2010 00:00:00 22.53417 C 8.16 g/m*3 22.53 C 0 km/h
214 08-07-2010 00:00:00 26.43417 C 8.69 g/m*3 26.43 C 0 km/h
215 09-07-2010 00:00:00 27.51333 C 9.42 g/m*3 27.51 C 0 km/h
216 10-07-2010 00:00:00 29.25667 C 10.76 g/m*3 29.26 C 0 km/h
217 11-07-2010 00:00:00 28.48319 C 12.85 g/m*3 28.48 C 0 km/h
218 12-07-2010 00:00:00 27.1175 C 11.1 g/m*3 27.12 C 0 km/h
219 13-07-2010 00:00:00 25.36083 C 10.39 g/m*3 25.36 C 0 km/h
220 14-07-2010 00:00:00 25.98917 C 11.73 g/m*3 25.99 C 0 km/h
221 15-07-2010 00:00:00 22.6525 C 8.81 g/m*3 22.65 C 0 km/h
222 16-07-2010 00:00:00 23.97667 C 8.47 g/m*3 23.98 C 0 km/h
223 17-07-2010 00:00:00 21.99167 C 10.18 g/m*3 21.99 C 0 km/h
224 18-07-2010 00:00:00 21.73833 C 7.35 g/m*3 21.74 C 0 km/h
225 19-07-2010 00:00:00 23.63167 C 8.01 g/m*3 23.63 C 0 km/h
Sensor: Nr:Datum:Temp:Abs-Feuchte:Windchill:Wind:
Aussen-T/F 226 20-07-2010 00:00:00 25.03833 C 8.46 g/m*3 25.04 C 0 km/h
227 21-07-2010 00:00:00 24.73833 C 9.31 g/m*3 24.74 C 0 km/h
228 22-07-2010 00:00:00 21.34917 C 11.61 g/m*3 21.35 C 0 km/h
229 23-07-2010 00:00:00 20.17059 C 11.52 g/m*3 20.17 C 0 km/h
230 24-07-2010 00:00:00 19.00667 C 9.15 g/m*3 19.01 C 0 km/h
231 25-07-2010 00:00:00 17.26833 C 7.8 g/m*3 17.27 C 0 km/h
232 26-07-2010 00:00:00 17.2925 C 11.46 g/m*3 17.29 C 0 km/h
233 27-07-2010 00:00:00 19.815 C 10.06 g/m*3 19.82 C 0 km/h
234 28-07-2010 00:00:00 20.5075 C 11.17 g/m*3 20.51 C 0 km/h
235 29-07-2010 00:00:00 16.32417 C 11.42 g/m*3 16.32 C 0 km/h
236 30-07-2010 00:00:00 19.665 C 9.34 g/m*3 19.67 C 0 km/h
237 31-07-2010 00:00:00 20.62417 C 9.08 g/m*3 20.62 C 0 km/h
238 01-08-2010 00:00:00 22.90833 C 11.98 g/m*3 22.91 C 0 km/h
239 02-08-2010 00:00:00 19.60917 C 11.25 g/m*3 19.61 C 0 km/h
240 03-08-2010 00:00:00 18.94167 C 10.12 g/m*3 18.94 C 0 km/h
241 04-08-2010 00:00:00 19.62269 C 9.16 g/m*3 19.62 C 0 km/h
242 05-08-2010 00:00:00 18.49417 C 10 g/m*3 18.49 C 0 km/h
243 06-08-2010 00:00:00 19.04667 C 8.08 g/m*3 19.05 C 0 km/h
244 07-08-2010 00:00:00 19.46583 C 7.91 g/m*3 19.47 C 0 km/h
245 08-08-2010 00:00:00 18.485 C 11.68 g/m*3 18.49 C 0 km/h
246 09-08-2010 00:00:00 19.515 C 10.42 g/m*3 19.52 C 0 km/h
247 10-08-2010 00:00:00 22.13583 C 9.74 g/m*3 22.14 C 0 km/h
248 11-08-2010 00:00:00 20.32833 C 12.64 g/m*3 20.33 C 0 km/h
249 12-08-2010 00:00:00 19.10917 C 11.28 g/m*3 19.11 C 0 km/h
250 13-08-2010 00:00:00 18.77833 C 9.07 g/m*3 18.78 C 0 km/h
Sensor: Nr:Datum:Temp:Abs-Feuchte:Windchill:Wind:
Aussen-T/F 251 14-08-2010 00:00:00 19.9675 C 9.59 g/m*3 19.97 C 0 km/h
252 15-08-2010 00:00:00 16.88667 C 11.8 g/m*3 16.89 C 0 km/h
253 16-08-2010 00:00:00 17.07479 C 11.15 g/m*3 17.07 C 0 km/h
254 17-08-2010 00:00:00 16.06667 C 10.71 g/m*3 16.07 C 0 km/h
255 18-08-2010 00:00:00 18.40917 C 9.91 g/m*3 18.41 C 0 km/h
256 19-08-2010 00:00:00 18.88917 C 8.2 g/m*3 18.89 C 0 km/h
257 20-08-2010 00:00:00 20.42605 C 9.9 g/m*3 20.43 C 0 km/h
258 21-08-2010 00:00:00 23.76417 C 11.32 g/m*3 23.76 C 0 km/h
259 22-08-2010 00:00:00 23.01667 C 12.14 g/m*3 23.02 C 0 km/h
260 23-08-2010 00:00:00 21.205 C 13.12 g/m*3 21.21 C 0 km/h
261 24-08-2010 00:00:00 19.27083 C 7.86 g/m*3 19.27 C 0 km/h
262 25-08-2010 00:00:00 17.61917 C 7.68 g/m*3 17.62 C 0 km/h
263 26-08-2010 00:00:00 20.68083 C 11.52 g/m*3 20.68 C 0 km/h
264 27-08-2010 00:00:00 18.37667 C 13.18 g/m*3 18.38 C 0 km/h
265 28-08-2010 00:00:00 14.0675 C 8.89 g/m*3 14.07 C 0 km/h
266 29-08-2010 00:00:00 13.03167 C 8.58 g/m*3 13.03 C 0 km/h
267 30-08-2010 00:00:00 12.5675 C 8.53 g/m*3 12.57 C 0 km/h
268 31-08-2010 00:00:00 15.42917 C 8.4 g/m*3 15.43 C 0 km/h
269 01-09-2010 00:00:00 14.82437 C 8.4 g/m*3 14.82 C 0 km/h
270 02-09-2010 00:00:00 14.95333 C 8.79 g/m*3 14.95 C 0 km/h
271 03-09-2010 00:00:00 15.91417 C 9.06 g/m*3 15.91 C 0 km/h
272 04-09-2010 00:00:00 16.71417 C 8.43 g/m*3 16.71 C 0 km/h
273 05-09-2010 00:00:00 15.205 C 7.52 g/m*3 15.21 C 0 km/h
274 06-09-2010 00:00:00 15.675 C 6.76 g/m*3 15.68 C 0 km/h
275 07-09-2010 00:00:00 13.36083 C 8.36 g/m*3 13.36 C 0 km/h
Sensor: Nr:Datum:Temp:Abs-Feuchte:Windchill:Wind:
Aussen-T/F 276 08-09-2010 00:00:00 15.545 C 10.94 g/m*3 15.55 C 0 km/h
277 09-09-2010 00:00:00 16.20583 C 9.61 g/m*3 16.21 C 0 km/h
278 10-09-2010 00:00:00 16.18 C 10.13 g/m*3 16.18 C 0 km/h
279 11-09-2010 00:00:00 18.13417 C 10.44 g/m*3 18.13 C 0 km/h
280 12-09-2010 00:00:00 16.21667 C 10.52 g/m*3 16.22 C 0 km/h
281 13-09-2010 00:00:00 15.67583 C 9.31 g/m*3 15.68 C 0 km/h
282 14-09-2010 00:00:00 16.63697 C 8.96 g/m*3 16.64 C 0 km/h
283 15-09-2010 00:00:00 16.3175 C 7.82 g/m*3 16.32 C 0 km/h
284 16-09-2010 00:00:00 14.07 C 8.33 g/m*3 14.07 C 0 km/h
285 17-09-2010 00:00:00 13.76667 C 7.53 g/m*3 13.77 C 0 km/h
286 18-09-2010 00:00:00 11.45083 C 6.84 g/m*3 11.45 C 0 km/h
287 19-09-2010 00:00:00 11.7425 C 6.69 g/m*3 11.74 C 0 km/h
288 20-09-2010 00:00:00 14.01 C 7.27 g/m*3 14.01 C 0 km/h
289 21-09-2010 00:00:00 14.27 C 8.52 g/m*3 14.27 C 0 km/h
290 22-09-2010 00:00:00 15.86667 C 9.22 g/m*3 15.87 C 0 km/h
291 23-09-2010 00:00:00 16.56167 C 9.98 g/m*3 16.56 C 0 km/h
292 24-09-2010 00:00:00 14.165 C 11.47 g/m*3 14.17 C 0 km/h
293 25-09-2010 00:00:00 12.41833 C 7.9 g/m*3 12.42 C 0 km/h
294 26-09-2010 00:00:00 11.2425 C 7.29 g/m*3 11.24 C 0 km/h
295 27-09-2010 00:00:00 9.86807 C 7.48 g/m*3 9.87 C 0 km/h
296 28-09-2010 00:00:00 10.93083 C 9.4 g/m*3 10.93 C 0 km/h
297 29-09-2010 00:00:00 13.39417 C 8.9 g/m*3 13.39 C 0 km/h
298 30-09-2010 00:00:00 11.89667 C 8.83 g/m*3 11.9 C 0 km/h
299 01-10-2010 00:00:00 12.33667 C 9.1 g/m*3 12.34 C 0 km/h
300 02-10-2010 00:00:00 13.4525 C 10.36 g/m*3 13.45 C 0 km/h
Sensor: Nr:Datum:Temp:Abs-Feuchte:Windchill:Wind:
Aussen-T/F 301 03-10-2010 00:00:00 17.83583 C 10.56 g/m*3 17.84 C 0 km/h
302 04-10-2010 00:00:00 16.905 C 9.67 g/m*3 16.91 C 0 km/h
303 05-10-2010 00:00:00 15.64833 C 10.9 g/m*3 15.65 C 0 km/h
304 06-10-2010 00:00:00 17.22333 C 9.99 g/m*3 17.22 C 0 km/h
305 07-10-2010 00:00:00 16.31167 C 10.3 g/m*3 16.31 C 0 km/h
306 08-10-2010 00:00:00 16.02917 C 9.37 g/m*3 16.03 C 0 km/h
307 09-10-2010 00:00:00 13.1475 C 8.13 g/m*3 13.15 C 0 km/h
308 10-10-2010 00:00:00 11.6125 C 6.4 g/m*3 11.61 C 0 km/h
309 11-10-2010 00:00:00 10.90084 C 5.45 g/m*3 10.9 C 0 km/h
310 12-10-2010 00:00:00 8.71917 C 5.9 g/m*3 8.72 C 0 km/h
311 13-10-2010 00:00:00 7.475 C 5.54 g/m*3 7.48 C 0 km/h
312 14-10-2010 00:00:00 7.55583 C 5.99 g/m*3 7.56 C 0 km/h
313 15-10-2010 00:00:00 10.475 C 7.36 g/m*3 10.48 C 0 km/h
314 16-10-2010 00:00:00 8.375 C 7.62 g/m*3 8.38 C 0 km/h
315 17-10-2010 00:00:00 7.22667 C 6.33 g/m*3 7.23 C 0 km/h
316 18-10-2010 00:00:00 6.71833 C 5.58 g/m*3 6.72 C 0 km/h
317 19-10-2010 00:00:00 7.28167 C 6.47 g/m*3 7.28 C 0 km/h
318 20-10-2010 00:00:00 6.14167 C 5.97 g/m*3 6.14 C 0 km/h
319 21-10-2010 00:00:00 5.27 C 4.63 g/m*3 5.27 C 0 km/h
320 22-10-2010 00:00:00 4.20167 C 4.11 g/m*3 4.2 C 0 km/h
321 23-10-2010 00:00:00 4.37899 C 4.82 g/m*3 4.38 C 0 km/h
322 24-10-2010 00:00:00 8.55667 C 5.66 g/m*3 8.56 C 0 km/h
323 25-10-2010 00:00:00 6.1525 C 5.22 g/m*3 6.15 C 0 km/h
324 26-10-2010 00:00:00 3.62417 C 5.12 g/m*3 3.62 C 0 km/h
325 27-10-2010 00:00:00 8.14917 C 4.91 g/m*3 8.15 C 0 km/h
Sensor: Nr:Datum:Temp:Abs-Feuchte:Windchill:Wind:
Aussen-T/F 326 28-10-2010 00:00:00 9.1725 C 5.55 g/m*3 9.17 C 0 km/h
327 29-10-2010 00:00:00 6.48333 C 6.48 g/m*3 6.48 C 0 km/h
328 02-11-2010 00:00:00 11.31548 C 6.81 g/m*3 11.32 C 0 km/h
329 03-11-2010 00:00:00 13.10333 C 7.84 g/m*3 13.1 C 0 km/h
330 04-11-2010 00:00:00 16.41167 C 8.7 g/m*3 16.41 C 0 km/h
331 05-11-2010 00:00:00 14.51917 C 7.32 g/m*3 14.52 C 0 km/h
332 06-11-2010 00:00:00 10.40917 C 7.73 g/m*3 10.41 C 0 km/h
333 07-11-2010 00:00:00 6.86917 C 7.11 g/m*3 6.87 C 0 km/h
334 08-11-2010 00:00:00 4.65583 C 5.68 g/m*3 4.66 C 0 km/h
335 09-11-2010 00:00:00 6.65667 C 6.48 g/m*3 6.66 C 0 km/h
336 10-11-2010 00:00:00 7.08319 C 6.48 g/m*3 7.08 C 0 km/h
337 11-11-2010 00:00:00 5.84167 C 5.32 g/m*3 5.84 C 0 km/h
338 12-11-2010 00:00:00 11.04083 C 6.73 g/m*3 11.04 C 0 km/h
339 13-11-2010 00:00:00 14.51917 C 8.83 g/m*3 14.52 C 0 km/h
340 14-11-2010 00:00:00 14.60833 C 7.79 g/m*3 14.61 C 0 km/h
341 15-11-2010 00:00:00 9.47833 C 6.15 g/m*3 9.48 C 0 km/h
342 16-11-2010 00:00:00 6.0125 C 5.77 g/m*3 6.01 C 0 km/h
343 17-11-2010 00:00:00 5.3125 C 5.17 g/m*3 5.31 C 0 km/h
344 18-11-2010 00:00:00 5.61917 C 5.95 g/m*3 5.62 C 0 km/h
345 19-11-2010 00:00:00 6.4275 C 6.1 g/m*3 6.43 C 0 km/h
346 20-11-2010 00:00:00 4.8325 C 5.94 g/m*3 4.83 C 0 km/h
347 21-11-2010 00:00:00 4.48333 C 4.84 g/m*3 4.48 C 0 km/h
348 22-11-2010 00:00:00 4.47417 C 4.96 g/m*3 4.47 C 0 km/h
349 23-11-2010 00:00:00 4.54118 C 4.59 g/m*3 4.54 C 0 km/h
350 24-11-2010 00:00:00 3.415 C 4.9 g/m*3 3.42 C 0 km/h
Sensor: Nr:Datum:Temp:Abs-Feuchte:Windchill:Wind:
Aussen-T/F 351 25-11-2010 00:00:00 1.74083 C 4.39 g/m*3 1.74 C 0 km/h
352 26-11-2010 00:00:00 -0.29083 C 4.18 g/m*3 -0.29 C 0 km/h
353 27-11-2010 00:00:00 -1.99167 C 3.56 g/m*3 -1.99 C 0 km/h
354 28-11-2010 00:00:00 -1.325 C 3.55 g/m*3 -1.33 C 0 km/h
355 29-11-2010 00:00:00 -1.55833 C 3.51 g/m*3 -1.56 C 0 km/h
356 30-11-2010 00:00:00 -1.9425 C 3.4 g/m*3 -1.94 C 0 km/h
357 01-12-2010 00:00:00 -5.7325 C 1.99 g/m*3 -5.73 C 0 km/h
358 02-12-2010 00:00:00 -7.03167 C 2.03 g/m*3 -7.03 C 0 km/h
359 03-12-2010 00:00:00 -7.38583 C 2.19 g/m*3 -7.39 C 0 km/h
360 04-12-2010 00:00:00 -3.48167 C 2.61 g/m*3 -3.48 C 0 km/h
361 05-12-2010 00:00:00 0.91667 C 3.38 g/m*3 0.92 C 0 km/h
362 06-12-2010 00:00:00 0.24538 C 4.01 g/m*3 0.25 C 0 km/h
363 07-12-2010 00:00:00 -0.20833 C 3.88 g/m*3 -0.21 C 0 km/h
364 08-12-2010 00:00:00 -0.25917 C 4.32 g/m*3 -0.26 C 0 km/h
365 09-12-2010 00:00:00 0.61333 C 3.92 g/m*3 0.61 C 0 km/h
366 10-12-2010 00:00:00 1.73333 C 4.69 g/m*3 1.73 C 0 km/h
367 11-12-2010 00:00:00 4.07583 C 5.18 g/m*3 4.08 C 0 km/h
368 12-12-2010 00:00:00 3.085 C 4.57 g/m*3 3.09 C 0 km/h
369 13-12-2010 00:00:00 -4.44833 C 2.51 g/m*3 -4.45 C 0 km/h
370 14-12-2010 00:00:00 -3.65833 C 2.82 g/m*3 -3.66 C 0 km/h
371 15-12-2010 00:00:00 -3.1275 C 2.86 g/m*3 -3.13 C 0 km/h
372 16-12-2010 00:00:00 -3.4675 C 2.96 g/m*3 -3.47 C 0 km/h
373 17-12-2010 00:00:00 -2.77417 C 2.92 g/m*3 -2.77 C 0 km/h
374 18-12-2010 00:00:00 -4.65833 C 2.74 g/m*3 -4.66 C 0 km/h
375 19-12-2010 00:00:00 -0.7125 C 3.86 g/m*3 -0.71 C 0 km/h
Sensor: Nr:Datum:Temp:Abs-Feuchte:Windchill:Wind:
Aussen-T/F 376 20-12-2010 00:00:00 -1.53667 C 3.48 g/m*3 -1.54 C 0 km/h
377 21-12-2010 00:00:00 -0.65546 C 4 g/m*3 -0.66 C 0 km/h
378 22-12-2010 00:00:00 0.9225 C 4.66 g/m*3 0.92 C 0 km/h
379 23-12-2010 00:00:00 -0.36833 C 4.23 g/m*3 -0.37 C 0 km/h
380 24-12-2010 00:00:00 -1.77438 C 3.53 g/m*3 -1.77 C 0 km/h
381 25-12-2010 00:00:00 -5.4775 C 2.37 g/m*3 -5.48 C 0 km/h
382 26-12-2010 00:00:00 -4.87833 C 2.59 g/m*3 -4.88 C 0 km/h
383 27-12-2010 00:00:00 -2.21833 C 3.28 g/m*3 -2.22 C 0 km/h
384 28-12-2010 00:00:00 -2.07899 C 3.35 g/m*3 -2.08 C 0 km/h
385 29-12-2010 00:00:00 -0.255 C 3.76 g/m*3 -0.26 C 0 km/h
386 30-12-2010 00:00:00 -0.55333 C 3.62 g/m*3 -0.55 C 0 km/h
387 31-12-2010 00:00:00 -1.09187 C 3.57 g/m*3 -1.09 C 0 km/h
388 01-01-2011 00:00:00 1.07311 C 4.52 g/m*3 1.07 C 0 km/h
389 02-01-2011 00:00:00 0.8025 C 4.39 g/m*3 0.8 C 0 km/h
390 03-01-2011 00:00:00 -0.9125 C 3.88 g/m*3 -0.91 C 0 km/h
391 04-01-2011 00:00:00 -2.36667 C 3.35 g/m*3 -2.37 C 0 km/h
392 05-01-2011 00:00:00 -3.83583 C 2.66 g/m*3 -3.84 C 0 km/h
393 06-01-2011 00:00:00 3.72667 C 5.49 g/m*3 3.73 C 0 km/h
394 07-01-2011 00:00:00 6.91833 C 6.93 g/m*3 6.92 C 0 km/h
395 08-01-2011 00:00:00 10.5675 C 7.09 g/m*3 10.57 C 0 km/h
396 09-01-2011 00:00:00 5.08655 C 5.84 g/m*3 5.09 C 0 km/h
397 10-01-2011 00:00:00 0.7175 C 4.39 g/m*3 0.72 C 0 km/h
398 11-01-2011 00:00:00 3.43667 C 4.81 g/m*3 3.44 C 0 km/h
399 12-01-2011 00:00:00 5.44 C 5.5 g/m*3 5.44 C 0 km/h
400 13-01-2011 00:00:00 11.80333 C 8.2 g/m*3 11.8 C 0 km/h
Sensor: Nr:Datum:Temp:Abs-Feuchte:Windchill:Wind:
Aussen-T/F 401 14-01-2011 00:00:00 11.77417 C 6.94 g/m*3 11.77 C 0 km/h
402 15-01-2011 00:00:00 8.68167 C 5.98 g/m*3 8.68 C 0 km/h
403 16-01-2011 00:00:00 6.84167 C 5.88 g/m*3 6.84 C 0 km/h
404 17-01-2011 00:00:00 3.62917 C 5.41 g/m*3 3.63 C 0 km/h
405 18-01-2011 00:00:00 7.28833 C 6.01 g/m*3 7.29 C 0 km/h
406 19-01-2011 00:00:00 3.30833 C 4.71 g/m*3 3.31 C 0 km/h
407 20-01-2011 00:00:00 1.7 C 4.36 g/m*3 1.7 C 0 km/h
408 21-01-2011 00:00:00 -0.0675 C 3.06 g/m*3 -0.07 C 0 km/h
409 22-01-2011 00:00:00 0.39664 C 3.9 g/m*3 0.4 C 0 km/h
410 23-01-2011 00:00:00 1.50167 C 4.65 g/m*3 1.5 C 0 km/h
411 24-01-2011 00:00:00 3.10167 C 5.07 g/m*3 3.1 C 0 km/h
412 25-01-2011 00:00:00 2.49833 C 4.56 g/m*3 2.5 C 0 km/h
413 26-01-2011 00:00:00 0.84083 C 4.26 g/m*3 0.84 C 0 km/h
414 27-01-2011 00:00:00 -0.28583 C 3.4 g/m*3 -0.29 C 0 km/h
415 28-01-2011 00:00:00 -1.27083 C 2.87 g/m*3 -1.27 C 0 km/h
416 29-01-2011 00:00:00 -4.9 C 2.7 g/m*3 -4.9 C 0 km/h
417 30-01-2011 00:00:00 -6.20917 C 2.48 g/m*3 -6.21 C 0 km/h
418 31-01-2011 00:00:00 -5.73833 C 2.59 g/m*3 -5.74 C 0 km/h
419 01-02-2011 00:00:00 -4.03917 C 2.66 g/m*3 -4.04 C 0 km/h
420 02-02-2011 00:00:00 -0.865 C 3.47 g/m*3 -0.87 C 0 km/h
421 03-02-2011 00:00:00 1.94454 C 4.48 g/m*3 1.94 C 0 km/h
422 04-02-2011 00:00:00 6.18583 C 5.15 g/m*3 6.19 C 0 km/h
423 05-02-2011 00:00:00 9.25833 C 5.56 g/m*3 9.26 C 0 km/h
424 06-02-2011 00:00:00 8.62 C 5.16 g/m*3 8.62 C 0 km/h
425 07-02-2011 00:00:00 6.48083 C 4.13 g/m*3 6.48 C 0 km/h
Sensor: Nr:Datum:Temp:Abs-Feuchte:Windchill:Wind:
Aussen-T/F 426 08-02-2011 00:00:00 5.48833 C 4.56 g/m*3 5.49 C 0 km/h
427 09-02-2011 00:00:00 -0.23333 C 3.95 g/m*3 -0.23 C 0 km/h
428 10-02-2011 00:00:00 3.9425 C 4.99 g/m*3 3.94 C 0 km/h
429 11-02-2011 00:00:00 10.23917 C 7.08 g/m*3 10.24 C 0 km/h
430 12-02-2011 00:00:00 6.88 C 6.26 g/m*3 6.88 C 0 km/h
431 13-02-2011 00:00:00 5.13417 C 5.66 g/m*3 5.13 C 0 km/h
432 14-02-2011 00:00:00 5.215 C 5.63 g/m*3 5.22 C 0 km/h
433 15-02-2011 00:00:00 5.14958 C 5.71 g/m*3 5.15 C 0 km/h
434 16-02-2011 00:00:00 4.90417 C 5.38 g/m*3 4.9 C 0 km/h
435 17-02-2011 00:00:00 1.96333 C 4.29 g/m*3 1.96 C 0 km/h
436 18-02-2011 00:00:00 2.23667 C 4.1 g/m*3 2.24 C 0 km/h
437 19-02-2011 00:00:00 2.82833 C 4.31 g/m*3 2.83 C 0 km/h
438 20-02-2011 00:00:00 0.7 C 3.16 g/m*3 0.7 C 0 km/h
439 21-02-2011 00:00:00 -1.8125 C 2.2 g/m*3 -1.81 C 0 km/h
440 22-02-2011 00:00:00 -3.39167 C 1.99 g/m*3 -3.39 C 0 km/h
441 23-02-2011 00:00:00 -2.66583 C 2.02 g/m*3 -2.67 C 0 km/h
442 24-02-2011 00:00:00 0.91083 C 3.9 g/m*3 0.91 C 0 km/h
443 25-02-2011 00:00:00 3.445 C 5.16 g/m*3 3.45 C 0 km/h
444 26-02-2011 00:00:00 5.07167 C 5.18 g/m*3 5.07 C 0 km/h
445 27-02-2011 00:00:00 5.47731 C 5.17 g/m*3 5.48 C 0 km/h
446 28-02-2011 00:00:00 4.52333 C 4.47 g/m*3 4.52 C 0 km/h
447 01-03-2011 00:00:00 4.31167 C 4.54 g/m*3 4.31 C 0 km/h
448 02-03-2011 00:00:00 3.41 C 3.07 g/m*3 3.41 C 0 km/h
449 03-03-2011 00:00:00 1.585 C 2.66 g/m*3 1.59 C 0 km/h
450 04-03-2011 00:00:00 2.1825 C 3.4 g/m*3 2.18 C 0 km/h
Sensor: Nr:Datum:Temp:Abs-Feuchte:Windchill:Wind:
Aussen-T/F 451 05-03-2011 00:00:00 0.19833 C 3.69 g/m*3 0.2 C 0 km/h
452 06-03-2011 00:00:00 1.7325 C 3.29 g/m*3 1.73 C 0 km/h
453 07-03-2011 00:00:00 1.05667 C 2.45 g/m*3 1.06 C 0 km/h
454 08-03-2011 00:00:00 1.92583 C 2.89 g/m*3 1.93 C 0 km/h
455 09-03-2011 00:00:00 6.48333 C 4.63 g/m*3 6.48 C 0 km/h
456 10-03-2011 00:00:00 7.3 C 4.55 g/m*3 7.3 C 0 km/h
457 11-03-2011 00:00:00 8.78571 C 4.65 g/m*3 8.79 C 0 km/h
458 12-03-2011 00:00:00 7.3525 C 4.83 g/m*3 7.35 C 0 km/h
459 13-03-2011 00:00:00 11.07917 C 6.51 g/m*3 11.08 C 0 km/h
460 14-03-2011 00:00:00 10.09917 C 7.33 g/m*3 10.1 C 0 km/h
461 15-03-2011 00:00:00 10.73917 C 6.79 g/m*3 10.74 C 0 km/h
462 16-03-2011 00:00:00 8.73583 C 5.74 g/m*3 8.74 C 0 km/h
463 17-03-2011 00:00:00 6.295 C 5.87 g/m*3 6.3 C 0 km/h
464 18-03-2011 00:00:00 6.41833 C 5.24 g/m*3 6.42 C 0 km/h
465 19-03-2011 00:00:00 6.63 C 4.93 g/m*3 6.63 C 0 km/h
466 20-03-2011 00:00:00 3.39167 C 3.78 g/m*3 3.39 C 0 km/h
467 21-03-2011 00:00:00 4.66333 C 3.99 g/m*3 4.66 C 0 km/h
468 22-03-2011 00:00:00 6.83333 C 4.54 g/m*3 6.83 C 0 km/h
469 23-03-2011 00:00:00 8.59333 C 5.59 g/m*3 8.59 C 0 km/h
470 24-03-2011 00:00:00 9.14417 C 5.42 g/m*3 9.14 C 0 km/h
471 25-03-2011 00:00:00 9.65798 C 5.14 g/m*3 9.66 C 0 km/h
472 26-03-2011 00:00:00 8.11917 C 4.97 g/m*3 8.12 C 0 km/h
473 27-03-2011 00:00:00 9.62174 C 4.9 g/m*3 9.62 C 0 km/h
474 28-03-2011 00:00:00 7.7225 C 4.66 g/m*3 7.72 C 0 km/h
475 29-03-2011 00:00:00 7.42083 C 4.65 g/m*3 7.42 C 0 km/h
Sensor: Nr:Datum:Temp:Abs-Feuchte:Windchill:Wind:
Aussen-T/F 476 30-03-2011 00:00:00 8.36333 C 5.61 g/m*3 8.36 C 0 km/h
477 31-03-2011 00:00:00 12.03833 C 7.81 g/m*3 12.04 C 0 km/h
478 01-04-2011 00:00:00 13.985 C 8.25 g/m*3 13.99 C 0 km/h
479 02-04-2011 00:00:00 14.21833 C 8.12 g/m*3 14.22 C 0 km/h
480 03-04-2011 00:00:00 11.81167 C 8.04 g/m*3 11.81 C 0 km/h
481 04-04-2011 00:00:00 10.68333 C 6.57 g/m*3 10.68 C 0 km/h
482 05-04-2011 00:00:00 9.30833 C 6.12 g/m*3 9.31 C 0 km/h
483 06-04-2011 00:00:00 15.69167 C 8.48 g/m*3 15.69 C 0 km/h
484 07-04-2011 00:00:00 16.35294 C 8.33 g/m*3 16.35 C 0 km/h
485 08-04-2011 00:00:00 13.4925 C 6.55 g/m*3 13.49 C 0 km/h
486 09-04-2011 00:00:00 12.96917 C 5.63 g/m*3 12.97 C 0 km/h
487 10-04-2011 00:00:00 12.2825 C 6.01 g/m*3 12.28 C 0 km/h
488 11-04-2011 00:00:00 14.76333 C 6.76 g/m*3 14.76 C 0 km/h
489 12-04-2011 00:00:00 10.27917 C 5.45 g/m*3 10.28 C 0 km/h
490 13-04-2011 00:00:00 7.60083 C 4.45 g/m*3 7.6 C 0 km/h
491 14-04-2011 00:00:00 8.3025 C 4.49 g/m*3 8.3 C 0 km/h
492 15-04-2011 00:00:00 7.43583 C 4.66 g/m*3 7.44 C 0 km/h
493 16-04-2011 00:00:00 8.14667 C 4.58 g/m*3 8.15 C 0 km/h
494 17-04-2011 00:00:00 11.61917 C 4.82 g/m*3 11.62 C 0 km/h
495 18-04-2011 00:00:00 10.9521 C 5.51 g/m*3 10.95 C 0 km/h
496 19-04-2011 00:00:00 12.87583 C 6.2 g/m*3 12.88 C 0 km/h
497 20-04-2011 00:00:00 13.54917 C 6.5 g/m*3 13.55 C 0 km/h
498 21-04-2011 00:00:00 14.49333 C 6.84 g/m*3 14.49 C 0 km/h
499 22-04-2011 00:00:00 16.35083 C 7.67 g/m*3 16.35 C 0 km/h
500 23-04-2011 00:00:00 18.26083 C 9.25 g/m*3 18.26 C 0 km/h
Sensor: Nr:Datum:Temp:Abs-Feuchte:Windchill:Wind:
Aussen-T/F 501 24-04-2011 00:00:00 16.74333 C 7.71 g/m*3 16.74 C 0 km/h
502 25-04-2011 00:00:00 15.975 C 6.16 g/m*3 15.98 C 0 km/h
503 26-04-2011 00:00:00 12.8275 C 6.81 g/m*3 12.83 C 0 km/h
504 27-04-2011 00:00:00 11.27167 C 7.84 g/m*3 11.27 C 0 km/h
505 28-04-2011 00:00:00 13.99 C 8.66 g/m*3 13.99 C 0 km/h
506 29-04-2011 00:00:00 15.08333 C 8.49 g/m*3 15.08 C 0 km/h
507 30-04-2011 00:00:00 15.42 C 7.44 g/m*3 15.42 C 0 km/h
508 01-05-2011 00:00:00 15.09328 C 4.89 g/m*3 15.09 C 0 km/h
509 02-05-2011 00:00:00 11.83333 C 4.67 g/m*3 11.83 C 0 km/h
510 03-05-2011 00:00:00 10.93167 C 4.17 g/m*3 10.93 C 0 km/h
511 04-05-2011 00:00:00 8.28 C 4.54 g/m*3 8.28 C 0 km/h
512 05-05-2011 00:00:00 10.32333 C 5.35 g/m*3 10.32 C 0 km/h
513 06-05-2011 00:00:00 13.52917 C 6.22 g/m*3 13.53 C 0 km/h
514 07-05-2011 00:00:00 17.6125 C 7.44 g/m*3 17.61 C 0 km/h
515 08-05-2011 00:00:00 19.07167 C 6.15 g/m*3 19.07 C 0 km/h
516 09-05-2011 00:00:00 18.40083 C 6.19 g/m*3 18.4 C 0 km/h
517 10-05-2011 00:00:00 17.95833 C 7.69 g/m*3 17.96 C 0 km/h
518 11-05-2011 00:00:00 18.40667 C 9.52 g/m*3 18.41 C 0 km/h
519 12-05-2011 00:00:00 15.77833 C 7.19 g/m*3 15.78 C 0 km/h
520 13-05-2011 00:00:00 13.68403 C 6.25 g/m*3 13.68 C 0 km/h
521 14-05-2011 00:00:00 12.59917 C 5.87 g/m*3 12.6 C 0 km/h
522 15-05-2011 00:00:00 10.34333 C 6.13 g/m*3 10.34 C 0 km/h
523 16-05-2011 00:00:00 12.58667 C 6.68 g/m*3 12.59 C 0 km/h
524 17-05-2011 00:00:00 17.04083 C 7.51 g/m*3 17.04 C 0 km/h
525 18-05-2011 00:00:00 16.60583 C 7.79 g/m*3 16.61 C 0 km/h
Sensor: Nr:Datum:Temp:Abs-Feuchte:Windchill:Wind:
Aussen-T/F 526 19-05-2011 00:00:00 17.10833 C 9.04 g/m*3 17.11 C 0 km/h
527 20-05-2011 00:00:00 16.53 C 10.17 g/m*3 16.53 C 0 km/h
528 21-05-2011 00:00:00 19.16077 C 9.98 g/m*3 19.16 C 0 km/h
529 22-05-2011 00:00:00 16.79593 C 8.96 g/m*3 16.8 C 0 km/h
530 23-05-2011 00:00:00 16.00167 C 6.77 g/m*3 16 C 0 km/h
531 24-05-2011 00:00:00 15.90583 C 6.52 g/m*3 15.91 C 0 km/h
532 25-05-2011 00:00:00 15.29333 C 5.83 g/m*3 15.29 C 0 km/h
533 26-05-2011 00:00:00 16.04833 C 5.88 g/m*3 16.05 C 0 km/h
534 27-05-2011 00:00:00 14.61 C 5.61 g/m*3 14.61 C 0 km/h
535 28-05-2011 00:00:00 15.2875 C 6.34 g/m*3 15.29 C 0 km/h
536 29-05-2011 00:00:00 19.21849 C 6.84 g/m*3 19.22 C 0 km/h
537 30-05-2011 00:00:00 20.91333 C 8.63 g/m*3 20.91 C 0 km/h
538 31-05-2011 00:00:00 14.84583 C 9.06 g/m*3 14.85 C 0 km/h
539 01-06-2011 00:00:00 14.86083 C 7 g/m*3 14.86 C 0 km/h
540 02-06-2011 00:00:00 19.79167 C 7.15 g/m*3 19.79 C 0 km/h
541 03-06-2011 00:00:00 20.65583 C 6.79 g/m*3 20.66 C 0 km/h
542 04-06-2011 00:00:00 21.20417 C 10.39 g/m*3 21.2 C 0 km/h
543 05-06-2011 00:00:00 18.63333 C 12.99 g/m*3 18.63 C 0 km/h
544 06-06-2011 00:00:00 18.38667 C 11.93 g/m*3 18.39 C 0 km/h
545 07-06-2011 00:00:00 20.62417 C 10.99 g/m*3 20.62 C 0 km/h
546 08-06-2011 00:00:00 15.695 C 8.9 g/m*3 15.7 C 0 km/h
547 09-06-2011 00:00:00 14.09328 C 8.28 g/m*3 14.09 C 0 km/h
548 10-06-2011 00:00:00 14.6563 C 8.82 g/m*3 14.66 C 0 km/h
549 11-06-2011 00:00:00 15.99417 C 8.05 g/m*3 15.99 C 0 km/h
550 12-06-2011 00:00:00 15.21167 C 7.37 g/m*3 15.21 C 0 km/h
Sensor: Nr:Datum:Temp:Abs-Feuchte:Windchill:Wind:
Aussen-T/F 551 13-06-2011 00:00:00 16.92167 C 8.46 g/m*3 16.92 C 0 km/h
552 14-06-2011 00:00:00 20.63333 C 10.65 g/m*3 20.63 C 0 km/h
553 15-06-2011 00:00:00 19.88909 C 10.18 g/m*3 19.89 C 0 km/h
554 16-06-2011 00:00:00 15.99375 C 8.34 g/m*3 15.99 C 0 km/h
555 17-06-2011 00:00:00 15.96417 C 8.11 g/m*3 15.96 C 0 km/h
556 18-06-2011 00:00:00 15.91083 C 7.98 g/m*3 15.91 C 0 km/h
557 19-06-2011 00:00:00 14.57917 C 7.13 g/m*3 14.58 C 0 km/h
558 20-06-2011 00:00:00 13.67417 C 9.25 g/m*3 13.67 C 0 km/h
559 21-06-2011 00:00:00 19.2575 C 11.21 g/m*3 19.26 C 0 km/h
560 22-06-2011 00:00:00 18.02773 C 11.1 g/m*3 18.03 C 0 km/h
561 23-06-2011 00:00:00 16.265 C 8.2 g/m*3 16.27 C 0 km/h
562 24-06-2011 00:00:00 14.2775 C 7.18 g/m*3 14.28 C 0 km/h
563 25-06-2011 00:00:00 13.42417 C 9.02 g/m*3 13.42 C 0 km/h
564 26-06-2011 00:00:00 15 C 10.26 g/m*3 15 C 0 km/h
565 27-06-2011 00:00:00 17.65667 C 10.91 g/m*3 17.66 C 0 km/h
566 28-06-2011 00:00:00 25.33167 C 11.62 g/m*3 25.33 C 0 km/h
567 29-06-2011 00:00:00 20.62 C 11.48 g/m*3 20.62 C 0 km/h
568 30-06-2011 00:00:00 17.92833 C 7.15 g/m*3 17.93 C 0 km/h
569 01-07-2011 00:00:00 15.115 C 8.01 g/m*3 15.12 C 0 km/h
570 02-07-2011 00:00:00 14.5975 C 7.11 g/m*3 14.6 C 0 km/h
571 03-07-2011 00:00:00 16.875 C 7.12 g/m*3 16.88 C 0 km/h
572 04-07-2011 00:00:00 16.2 C 7.58 g/m*3 16.2 C 0 km/h
573 05-07-2011 00:00:00 24.435 C 9.98 g/m*3 24.44 C 0 km/h
574 06-07-2011 00:00:00 20.39333 C 9.1 g/m*3 20.39 C 0 km/h
575 07-07-2011 00:00:00 19.52083 C 8.94 g/m*3 19.52 C 0 km/h
Sensor: Nr:Datum:Temp:Abs-Feuchte:Windchill:Wind:
Aussen-T/F 576 08-07-2011 00:00:00 19.92333 C 8.54 g/m*3 19.92 C 0 km/h
577 09-07-2011 00:00:00 21.28083 C 8.6 g/m*3 21.28 C 0 km/h
578 10-07-2011 00:00:00 18.22833 C 9.4 g/m*3 18.23 C 0 km/h
579 11-07-2011 00:00:00 20.90417 C 10.03 g/m*3 20.9 C 0 km/h
580 12-07-2011 00:00:00 19.89917 C 10.56 g/m*3 19.9 C 0 km/h
581 13-07-2011 00:00:00 15.985 C 10.63 g/m*3 15.99 C 0 km/h
582 14-07-2011 00:00:00 15.70417 C 6.99 g/m*3 15.7 C 0 km/h
583 15-07-2011 00:00:00 18.7025 C 6.71 g/m*3 18.7 C 0 km/h
584 16-07-2011 00:00:00 18.92269 C 7.49 g/m*3 18.92 C 0 km/h
585 17-07-2011 00:00:00 17.68667 C 9.94 g/m*3 17.69 C 0 km/h
586 18-07-2011 00:00:00 16.98583 C 8.21 g/m*3 16.99 C 0 km/h
587 19-07-2011 00:00:00 16.52167 C 9.22 g/m*3 16.52 C 0 km/h
588 20-07-2011 00:00:00 15.91917 C 10.35 g/m*3 15.92 C 0 km/h
589 21-07-2011 00:00:00 16.59583 C 10.82 g/m*3 16.6 C 0 km/h
590 22-07-2011 00:00:00 16.87083 C 8.36 g/m*3 16.87 C 0 km/h
591 23-07-2011 00:00:00 13.94417 C 7.47 g/m*3 13.94 C 0 km/h
592 24-07-2011 00:00:00 12.63083 C 8.38 g/m*3 12.63 C 0 km/h
593 25-07-2011 00:00:00 16.39417 C 8.85 g/m*3 16.39 C 0 km/h
594 26-07-2011 00:00:00 16.5375 C 10.33 g/m*3 16.54 C 0 km/h
595 27-07-2011 00:00:00 17.045 C 11.16 g/m*3 17.05 C 0 km/h
596 28-07-2011 00:00:00 18.71345 C 11.5 g/m*3 18.71 C 0 km/h
597 29-07-2011 00:00:00 17.87583 C 9.99 g/m*3 17.88 C 0 km/h
598 30-07-2011 00:00:00 15.04833 C 8.6 g/m*3 15.05 C 0 km/h
599 31-07-2011 00:00:00 15.27667 C 7.67 g/m*3 15.28 C 0 km/h
600 01-08-2011 00:00:00 16.885 C 8.98 g/m*3 16.89 C 0 km/h
Sensor: Nr:Datum:Temp:Abs-Feuchte:Windchill:Wind:
Aussen-T/F 601 02-08-2011 00:00:00 20.45917 C 10.66 g/m*3 20.46 C 0 km/h
602 03-08-2011 00:00:00 19.3425 C 12.45 g/m*3 19.34 C 0 km/h
603 04-08-2011 00:00:00 21.59083 C 12.52 g/m*3 21.59 C 0 km/h
604 05-08-2011 00:00:00 22.10417 C 12.9 g/m*3 22.1 C 0 km/h
605 06-08-2011 00:00:00 19.43333 C 13.51 g/m*3 19.43 C 0 km/h
606 07-08-2011 00:00:00 17.99583 C 9.29 g/m*3 18 C 0 km/h
607 08-08-2011 00:00:00 15.61 C 8.66 g/m*3 15.61 C 0 km/h
608 09-08-2011 00:00:00 15.21177 C 8.52 g/m*3 15.21 C 0 km/h
609 10-08-2011 00:00:00 11.545 C 7.33 g/m*3 11.55 C 0 km/h
610 11-08-2011 00:00:00 15.27417 C 7.81 g/m*3 15.27 C 0 km/h
611 12-08-2011 00:00:00 17.7625 C 10.87 g/m*3 17.76 C 0 km/h
612 13-08-2011 00:00:00 19.08833 C 11.8 g/m*3 19.09 C 0 km/h
613 14-08-2011 00:00:00 18.79167 C 12.74 g/m*3 18.79 C 0 km/h
614 15-08-2011 00:00:00 19.07917 C 10.51 g/m*3 19.08 C 0 km/h
615 16-08-2011 00:00:00 18.73083 C 9.69 g/m*3 18.73 C 0 km/h
616 17-08-2011 00:00:00 18.89 C 10.72 g/m*3 18.89 C 0 km/h
617 18-08-2011 00:00:00 22.63167 C 12.33 g/m*3 22.63 C 0 km/h
618 19-08-2011 00:00:00 19.24667 C 11.36 g/m*3 19.25 C 0 km/h
619 20-08-2011 00:00:00 18.59833 C 10.46 g/m*3 18.6 C 0 km/h
620 21-08-2011 00:00:00 20.63583 C 12.38 g/m*3 20.64 C 0 km/h
621 22-08-2011 00:00:00 23.83613 C 13.38 g/m*3 23.84 C 0 km/h
622 23-08-2011 00:00:00 23.46583 C 12.87 g/m*3 23.47 C 0 km/h
623 24-08-2011 00:00:00 20.97833 C 12.32 g/m*3 20.98 C 0 km/h
624 25-08-2011 00:00:00 20.68833 C 12.56 g/m*3 20.69 C 0 km/h
625 26-08-2011 00:00:00 20.87 C 13.51 g/m*3 20.87 C 0 km/h
Sensor: Nr:Datum:Temp:Abs-Feuchte:Windchill:Wind:
Aussen-T/F 626 27-08-2011 00:00:00 15.035 C 9.87 g/m*3 15.04 C 0 km/h
627 28-08-2011 00:00:00 15.25583 C 8.29 g/m*3 15.26 C 0 km/h
628 29-08-2011 00:00:00 14.68667 C 7.47 g/m*3 14.69 C 0 km/h
629 30-08-2011 00:00:00 12.15833 C 7.48 g/m*3 12.16 C 0 km/h
630 31-08-2011 00:00:00 13.1325 C 7.9 g/m*3 13.13 C 0 km/h
631 01-09-2011 00:00:00 15.16083 C 8.72 g/m*3 15.16 C 0 km/h
632 02-09-2011 00:00:00 17.55667 C 10.68 g/m*3 17.56 C 0 km/h
633 03-09-2011 00:00:00 20.71597 C 12.56 g/m*3 20.72 C 0 km/h
634 04-09-2011 00:00:00 21.65833 C 12.72 g/m*3 21.66 C 0 km/h
635 05-09-2011 00:00:00 17.79667 C 7.96 g/m*3 17.8 C 0 km/h
636 06-09-2011 00:00:00 15.93333 C 7.85 g/m*3 15.93 C 0 km/h
637 07-09-2011 00:00:00 16.43 C 7.86 g/m*3 16.43 C 0 km/h
638 08-09-2011 00:00:00 15.3775 C 7.81 g/m*3 15.38 C 0 km/h
639 09-09-2011 00:00:00 18.46 C 11.77 g/m*3 18.46 C 0 km/h
640 10-09-2011 00:00:00 21.15667 C 14.36 g/m*3 21.16 C 0 km/h
641 11-09-2011 00:00:00 17.895 C 12.4 g/m*3 17.9 C 0 km/h
642 12-09-2011 00:00:00 17.43583 C 10.22 g/m*3 17.44 C 0 km/h
643 13-09-2011 00:00:00 18.005 C 10.27 g/m*3 18.01 C 0 km/h
644 14-09-2011 00:00:00 14.43917 C 7.46 g/m*3 14.44 C 0 km/h
645 15-09-2011 00:00:00 13.91583 C 7.97 g/m*3 13.92 C 0 km/h
646 16-09-2011 00:00:00 12.79667 C 8.83 g/m*3 12.8 C 0 km/h
647 17-09-2011 00:00:00 16.78824 C 9.66 g/m*3 16.79 C 0 km/h
648 18-09-2011 00:00:00 12.7625 C 8.18 g/m*3 12.76 C 0 km/h
649 19-09-2011 00:00:00 12.76833 C 7.68 g/m*3 12.77 C 0 km/h
650 20-09-2011 00:00:00 12.41333 C 8.1 g/m*3 12.41 C 0 km/h
Sensor: Nr:Datum:Temp:Abs-Feuchte:Windchill:Wind:
Aussen-T/F 651 21-09-2011 00:00:00 13.775 C 8.34 g/m*3 13.78 C 0 km/h
652 22-09-2011 00:00:00 15.79167 C 7.98 g/m*3 15.79 C 0 km/h
653 23-09-2011 00:00:00 14.20917 C 7.92 g/m*3 14.21 C 0 km/h
654 24-09-2011 00:00:00 12.8025 C 8.32 g/m*3 12.8 C 0 km/h
655 25-09-2011 00:00:00 14.1125 C 9.33 g/m*3 14.11 C 0 km/h
656 26-09-2011 00:00:00 15.74917 C 10.22 g/m*3 15.75 C 0 km/h
657 27-09-2011 00:00:00 17.1525 C 10.93 g/m*3 17.15 C 0 km/h
658 28-09-2011 00:00:00 16.71 C 11.03 g/m*3 16.71 C 0 km/h
659 29-09-2011 00:00:00 16.13167 C 10.33 g/m*3 16.13 C 0 km/h
660 30-09-2011 00:00:00 14.48824 C 9.37 g/m*3 14.49 C 0 km/h
661 01-10-2011 00:00:00 14.3525 C 9.54 g/m*3 14.35 C 0 km/h
662 02-10-2011 00:00:00 14.74 C 9.74 g/m*3 14.74 C 0 km/h
663 03-10-2011 00:00:00 15.125 C 9.75 g/m*3 15.13 C 0 km/h
664 04-10-2011 00:00:00 16.96167 C 9.11 g/m*3 16.96 C 0 km/h
665 05-10-2011 00:00:00 17.94667 C 9.13 g/m*3 17.95 C 0 km/h
666 06-10-2011 00:00:00 14.175 C 8.46 g/m*3 14.18 C 0 km/h
667 07-10-2011 00:00:00 9.92583 C 6.22 g/m*3 9.93 C 0 km/h
668 08-10-2011 00:00:00 9.01167 C 6.47 g/m*3 9.01 C 0 km/h
669 09-10-2011 00:00:00 9.11667 C 7.02 g/m*3 9.12 C 0 km/h
670 10-10-2011 00:00:00 16.5475 C 9.61 g/m*3 16.55 C 0 km/h
671 11-10-2011 00:00:00 16.37917 C 8.72 g/m*3 16.38 C 0 km/h
672 12-10-2011 00:00:00 15.74333 C 8.96 g/m*3 15.74 C 0 km/h
673 13-10-2011 00:00:00 10.145 C 6.96 g/m*3 10.15 C 0 km/h
674 14-10-2011 00:00:00 6.14286 C 5.77 g/m*3 6.14 C 0 km/h
675 15-10-2011 00:00:00 4.65417 C 5.23 g/m*3 4.65 C 0 km/h
Sensor: Nr:Datum:Temp:Abs-Feuchte:Windchill:Wind:
Aussen-T/F 676 16-10-2011 00:00:00 4.29833 C 5.17 g/m*3 4.3 C 0 km/h
677 17-10-2011 00:00:00 6.42917 C 6.14 g/m*3 6.43 C 0 km/h
678 18-10-2011 00:00:00 8.99833 C 7.14 g/m*3 9 C 0 km/h
679 19-10-2011 00:00:00 8.2025 C 5.92 g/m*3 8.2 C 0 km/h
680 20-10-2011 00:00:00 5.4275 C 5.58 g/m*3 5.43 C 0 km/h
681 21-10-2011 00:00:00 3.16333 C 5.27 g/m*3 3.16 C 0 km/h
682 22-10-2011 00:00:00 3.45333 C 5.04 g/m*3 3.45 C 0 km/h
683 23-10-2011 00:00:00 2.44833 C 4.92 g/m*3 2.45 C 0 km/h
684 24-10-2011 00:00:00 5.85083 C 5.45 g/m*3 5.85 C 0 km/h
685 25-10-2011 00:00:00 9.17417 C 6.55 g/m*3 9.17 C 0 km/h
686 26-10-2011 00:00:00 9.305 C 6.4 g/m*3 9.31 C 0 km/h
687 27-10-2011 00:00:00 5.69333 C 6.08 g/m*3 5.69 C 0 km/h
688 28-10-2011 00:00:00 8.32857 C 7.33 g/m*3 8.33 C 0 km/h
689 29-10-2011 00:00:00 10.61667 C 8.11 g/m*3 10.62 C 0 km/h
690 30-10-2011 00:00:00 12.2192 C 9.31 g/m*3 12.22 C 0 km/h
691 31-10-2011 00:00:00 11.39 C 8.86 g/m*3 11.39 C 0 km/h
692 01-11-2011 00:00:00 9.17333 C 7.52 g/m*3 9.17 C 0 km/h
693 02-11-2011 00:00:00 10.59667 C 7.89 g/m*3 10.6 C 0 km/h
694 03-11-2011 00:00:00 11.35583 C 7.36 g/m*3 11.36 C 0 km/h
695 04-11-2011 00:00:00 10.15333 C 7.6 g/m*3 10.15 C 0 km/h
696 05-11-2011 00:00:00 10.31333 C 7.32 g/m*3 10.31 C 0 km/h
697 06-11-2011 00:00:00 8.90583 C 7.36 g/m*3 8.91 C 0 km/h
698 07-11-2011 00:00:00 8.85 C 7.07 g/m*3 8.85 C 0 km/h
699 08-11-2011 00:00:00 5.84583 C 6.28 g/m*3 5.85 C 0 km/h
700 09-11-2011 00:00:00 6.5025 C 6.49 g/m*3 6.5 C 0 km/h
Sensor: Nr:Datum:Temp:Abs-Feuchte:Windchill:Wind:
Aussen-T/F 701 10-11-2011 00:00:00 6.29328 C 6.04 g/m*3 6.29 C 0 km/h
702 11-11-2011 00:00:00 6.25417 C 5.61 g/m*3 6.25 C 0 km/h
703 12-11-2011 00:00:00 4.20083 C 5.31 g/m*3 4.2 C 0 km/h
704 13-11-2011 00:00:00 4.15833 C 5.51 g/m*3 4.16 C 0 km/h
705 14-11-2011 00:00:00 0.35917 C 4.59 g/m*3 0.36 C 0 km/h
706 15-11-2011 00:00:00 0.25583 C 4.55 g/m*3 0.26 C 0 km/h
707 16-11-2011 00:00:00 -1.28871 C 4.06 g/m*3 -1.29 C 0 km/h
708 17-11-2011 00:00:00 3.935 C 5.08 g/m*3 3.94 C 0 km/h
709 18-11-2011 00:00:00 7.49833 C 6.7 g/m*3 7.5 C 0 km/h
710 19-11-2011 00:00:00 5.435 C 6.26 g/m*3 5.44 C 0 km/h
711 20-11-2011 00:00:00 6.58083 C 6.06 g/m*3 6.58 C 0 km/h
712 21-11-2011 00:00:00 1.40917 C 4.92 g/m*3 1.41 C 0 km/h
713 22-11-2011 00:00:00 1.14083 C 4.83 g/m*3 1.14 C 0 km/h
714 23-11-2011 00:00:00 1.59583 C 5.02 g/m*3 1.6 C 0 km/h
715 24-11-2011 00:00:00 2.37083 C 5.25 g/m*3 2.37 C 0 km/h
716 25-11-2011 00:00:00 1.0775 C 4.47 g/m*3 1.08 C 0 km/h
717 26-11-2011 00:00:00 6.25167 C 5.54 g/m*3 6.25 C 0 km/h
718 27-11-2011 00:00:00 7.40833 C 5.63 g/m*3 7.41 C 0 km/h
719 28-11-2011 00:00:00 0.83833 C 4.74 g/m*3 0.84 C 0 km/h
720 29-11-2011 00:00:00 1.88167 C 4.94 g/m*3 1.88 C 0 km/h
721 30-11-2011 00:00:00 4.85083 C 5.78 g/m*3 4.85 C 0 km/h
722 01-12-2011 00:00:00 5.47459 C 6.17 g/m*3 5.47 C 0 km/h
723 02-12-2011 00:00:00 7.12667 C 6.07 g/m*3 7.13 C 0 km/h
724 03-12-2011 00:00:00 6.26583 C 5.67 g/m*3 6.27 C 0 km/h
725 04-12-2011 00:00:00 8.2975 C 6.82 g/m*3 8.3 C 0 km/h
Sensor: Nr:Datum:Temp:Abs-Feuchte:Windchill:Wind:
Aussen-T/F 726 05-12-2011 00:00:00 4.38417 C 4.68 g/m*3 4.38 C 0 km/h
727 06-12-2011 00:00:00 4.445 C 4.4 g/m*3 4.45 C 0 km/h
728 07-12-2011 00:00:00 5.57833 C 5 g/m*3 5.58 C 0 km/h
729 08-12-2011 00:00:00 6.22333 C 4.58 g/m*3 6.22 C 0 km/h
730 09-12-2011 00:00:00 5.94583 C 5.15 g/m*3 5.95 C 0 km/h
731 10-12-2011 00:00:00 1.885 C 4.22 g/m*3 1.89 C 0 km/h
732 11-12-2011 00:00:00 0.43667 C 4.15 g/m*3 0.44 C 0 km/h
733 12-12-2011 00:00:00 5.94754 C 5.56 g/m*3 5.95 C 0 km/h
734 13-12-2011 00:00:00 6.86417 C 5.29 g/m*3 6.86 C 0 km/h
735 14-12-2011 00:00:00 6.68371 C 6.1 g/m*3 4.39 C 11.45758 km/h
736 15-12-2011 00:00:00 6.13646 C 5.7 g/m*3 3.9 C 10.55208 km/h
737 16-12-2011 00:00:00 6.07222 C 6.06 g/m*3 3.54 C 12.08819 km/h
738 17-12-2011 00:00:00 3.63507 C 5.26 g/m*3 1.48 C 8.17431 km/h
739 18-12-2011 00:00:00 2.25764 C 4.91 g/m*3 0.33 C 6.6875 km/h
740 19-12-2011 00:00:00 1.70208 C 4.69 g/m*3 1.7 C 4.33715 km/h
741 20-12-2011 00:00:00 2.28715 C 5.15 g/m*3 2.29 C 4.2434 km/h
742 21-12-2011 00:00:00 4.19792 C 5.66 g/m*3 2.64 C 6.47639 km/h
743 22-12-2011 00:00:00 6.57917 C 7.14 g/m*3 6.58 C 3.52847 km/h
744 23-12-2011 00:00:00 8.41806 C 7.71 g/m*3 8.42 C 4.81424 km/h
745 24-12-2011 00:00:00 5.63368 C 5.92 g/m*3 3.43 C 9.91007 km/h
746 25-12-2011 00:00:00 5.68472 C 6.14 g/m*3 3.52 C 9.78507 km/h
747 26-12-2011 00:00:00 8.12222 C 7.46 g/m*3 6.74 C 8.26389 km/h
748 27-12-2011 00:00:00 8.25139 C 7.48 g/m*3 8.25 C 2.92604 km/h
749 28-12-2011 00:00:00 5.71424 C 6.17 g/m*3 4.17 C 7.23854 km/h
750 29-12-2011 00:00:00 5.51667 C 5.66 g/m*3 2.84 C 12.22257 km/h
Sensor: Nr:Datum:Temp:Abs-Feuchte:Windchill:Wind:
Aussen-T/F 751 30-12-2011 00:00:00 4.24861 C 5.39 g/m*3 1.73 C 10.11736 km/h
752 31-12-2011 00:00:00 5.15729 C 6.43 g/m*3 5.16 C 3.01632 km/h
753 01-01-2012 00:00:00 12.02807 C 9.43 g/m*3 12.03 C 8.78386 km/h
754 02-01-2012 00:00:00 8.87847 C 7.72 g/m*3 7.94 C 6.93264 km/h
755 03-01-2012 00:00:00 7.43403 C 6.52 g/m*3 5.14 C 12.40729 km/h
756 04-01-2012 00:00:00 6.56875 C 5.76 g/m*3 4.06 C 12.56285 km/h
757 05-01-2012 00:00:00 6.88368 C 6.18 g/m*3 3.58 C 18.83542 km/h
758 06-01-2012 00:00:00 5.40208 C 5.7 g/m*3 2.58 C 12.92361 km/h
759 07-01-2012 00:00:00 5.54653 C 5.98 g/m*3 2.83 C 12.50278 km/h
760 08-01-2012 00:00:00 5.96042 C 6.13 g/m*3 4.3 C 7.84514 km/h
761 09-01-2012 00:00:00 6.11424 C 6.58 g/m*3 4.81 C 6.62743 km/h
762 10-01-2012 00:00:00 6.93056 C 7.03 g/m*3 6.93 C 3.02882 km/h
763 11-01-2012 00:00:00 8.11597 C 6.84 g/m*3 7.26 C 6.14826 km/h
764 12-01-2012 00:00:00 8.18819 C 6.9 g/m*3 6.08 C 12.27049 km/h
765 13-01-2012 00:00:00 5.12569 C 5.2 g/m*3 2.95 C 9.37569 km/h
766 14-01-2012 00:00:00 3.95417 C 5 g/m*3 3.95 C 4.25694 km/h
767 15-01-2012 00:00:00 -0.23715 C 4.52 g/m*3 -0.24 C 1.86111 km/h
768 16-01-2012 00:00:00 -1.80312 C 4.02 g/m*3 -1.8 C 1.83333 km/h
769 17-01-2012 00:00:00 -2.78368 C 3.69 g/m*3 -2.78 C 1.10556 km/h
770 18-01-2012 00:00:00 -0.12708 C 4.32 g/m*3 -2.76 C 7.60694 km/h
771 19-01-2012 00:00:00 6.67639 C 6.84 g/m*3 3.88 C 14.53819 km/h
772 20-01-2012 00:00:00 4.025 C 5.54 g/m*3 1.91 C 8.28333 km/h
773 21-01-2012 00:00:00 5.73681 C 6.39 g/m*3 3.58 C 9.81354 km/h
774 22-01-2012 00:00:00 6.85764 C 5.84 g/m*3 4.26 C 13.54236 km/h
775 23-01-2012 00:00:00 5.22708 C 5.7 g/m*3 3.41 C 7.97396 km/h
Sensor: Nr:Datum:Temp:Abs-Feuchte:Windchill:Wind:
Aussen-T/F 776 24-01-2012 00:00:00 3.1191 C 5.44 g/m*3 3.12 C 3.95903 km/h
777 25-01-2012 00:00:00 0.47708 C 4.75 g/m*3 0.48 C 1.85 km/h
778 26-01-2012 00:00:00 1.84132 C 4.64 g/m*3 1.84 C 3.40451 km/h
779 27-01-2012 00:00:00 2.58437 C 5.32 g/m*3 2.58 C 1.90104 km/h
780 28-01-2012 00:00:00 2.69896 C 5.12 g/m*3 2.7 C 1.55729 km/h
781 29-01-2012 00:00:00 0.84583 C 4.18 g/m*3 0.85 C 4.61007 km/h
782 30-01-2012 00:00:00 -0.00208 C 3.89 g/m*3 0 C 2.62326 km/h
783 31-01-2012 00:00:00 -1.90972 C 2.97 g/m*3 -4 C 5.50486 km/h
784 01-02-2012 00:00:00 -5.28403 C 2.04 g/m*3 -8.99 C 8.11736 km/h
785 02-02-2012 00:00:00 -7.12396 C 1.51 g/m*3 -10.34 C 6.25729 km/h
786 03-02-2012 00:00:00 -8.52361 C 1.79 g/m*3 -8.52 C 2.86215 km/h
787 04-02-2012 00:00:00 -8.31389 C 2.08 g/m*3 -8.31 C 2.1 km/h
788 05-02-2012 00:00:00 -9.04861 C 1.83 g/m*3 -9.05 C 2.36215 km/h
789 06-02-2012 00:00:00 -9.67674 C 1.68 g/m*3 -9.68 C 2.38958 km/h
790 07-02-2012 00:00:00 -9.19832 C 1.73 g/m*3 -12.43 C 5.69706 km/h
791 08-02-2012 00:00:00 -5.57083 C 2.37 g/m*3 -8.79 C 6.79792 km/h
792 09-02-2012 00:00:00 -7.39479 C 2.48 g/m*3 -7.39 C 2.61215 km/h
793 10-02-2012 00:00:00 -6.11875 C 2.37 g/m*3 -6.12 C 4.48194 km/h
794 11-02-2012 00:00:00 -8.24931 C 1.89 g/m*3 -8.25 C 4.42743 km/h
795 12-02-2012 00:00:00 -6.58063 C 2.2 g/m*3 -6.58 C 2.04269 km/h
796 13-02-2012 00:00:00 -0.88993 C 3.76 g/m*3 -0.89 C 2.37813 km/h
797 14-02-2012 00:00:00 1.59931 C 5.05 g/m*3 1.6 C 4.2559 km/h
798 15-02-2012 00:00:00 3.97674 C 5.46 g/m*3 1 C 12.0816 km/h
799 16-02-2012 00:00:00 3.54896 C 5.63 g/m*3 2.4 C 5.08507 km/h
800 17-02-2012 00:00:00 5.57917 C 6.2 g/m*3 3.56 C 9.06771 km/h
Sensor: Nr:Datum:Temp:Abs-Feuchte:Windchill:Wind:
Aussen-T/F 801 18-02-2012 00:00:00 6.37083 C 6.55 g/m*3 5.3 C 6.00278 km/h
802 19-02-2012 00:00:00 2.99271 C 5.23 g/m*3 1.26 C 6.44375 km/h
803 20-02-2012 00:00:00 1.18333 C 4.47 g/m*3 1.18 C 2.83542 km/h
804 21-02-2012 00:00:00 1.84583 C 4.31 g/m*3 0.32 C 5.43472 km/h
805 22-02-2012 00:00:00 3.17951 C 4.88 g/m*3 3.18 C 4.49236 km/h
806 23-02-2012 00:00:00 6.17352 C 6 g/m*3 3.54 C 12.77909 km/h
807 24-02-2012 00:00:00 9.38101 C 7.83 g/m*3 7.78 C 10.64767 km/h
808 25-02-2012 00:00:00 8.6186 C 6.96 g/m*3 7.94 C 5.80281 km/h
809 26-02-2012 00:00:00 5.29167 C 6.13 g/m*3 5.29 C 3.88611 km/h
810 27-02-2012 00:00:00 5.83671 C 5.98 g/m*3 5.84 C 3.63392 km/h
811 28-02-2012 00:00:00 8.57639 C 7.33 g/m*3 7.89 C 5.80451 km/h
812 29-02-2012 00:00:00 9.50385 C 8.41 g/m*3 9.5 C 1.76783 km/h
813 01-03-2012 00:00:00 9.01563 C 8.27 g/m*3 9.02 C 1.62292 km/h
814 02-03-2012 00:00:00 8.57986 C 7.95 g/m*3 8.58 C 2.37986 km/h
815 03-03-2012 00:00:00 7.91597 C 7.43 g/m*3 7.92 C 1.94653 km/h
816 04-03-2012 00:00:00 8.65625 C 7.04 g/m*3 8.66 C 2.75069 km/h
817 05-03-2012 00:00:00 5.81597 C 5.57 g/m*3 4.08 C 8.05174 km/h
818 06-03-2012 00:00:00 5.43924 C 5.12 g/m*3 5.44 C 4.19063 km/h
819 07-03-2012 00:00:00 2.93962 C 4.81 g/m*3 1.24 C 6.32906 km/h
820 08-03-2012 00:00:00 5.35833 C 5.6 g/m*3 3.45 C 8.425 km/h
821 09-03-2012 00:00:00 4.88437 C 5.29 g/m*3 4.88 C 3.76771 km/h
822 10-03-2012 00:00:00 8.58541 C 6.77 g/m*3 8.59 C 4.07082 km/h
823 11-03-2012 00:00:00 9.26775 C 7.44 g/m*3 9.27 C 4.08261 km/h
824 12-03-2012 00:00:00 8.0632 C 7.18 g/m*3 8.06 C 4.78216 km/h
825 13-03-2012 00:00:00 7.68299 C 6.78 g/m*3 7.68 C 2.73958 km/h
Sensor: Nr:Datum:Temp:Abs-Feuchte:Windchill:Wind:
Aussen-T/F 826 14-03-2012 00:00:00 6.93542 C 6.09 g/m*3 6.94 C 2.55694 km/h
827 15-03-2012 00:00:00 7.07812 C 6.17 g/m*3 7.08 C 2.43472 km/h
828 16-03-2012 00:00:00 10.01696 C 6.56 g/m*3 10.02 C 2.57739 km/h
829 17-03-2012 00:00:00 9.42917 C 6.8 g/m*3 8.99 C 5.38056 km/h
830 18-03-2012 00:00:00 8.64931 C 7.23 g/m*3 8.65 C 4.38299 km/h
831 19-03-2012 00:00:00 7.37083 C 5.72 g/m*3 7.37 C 4.39375 km/h
832 20-03-2012 00:00:00 6.81088 C 5.19 g/m*3 6.81 C 2.84728 km/h
833 21-03-2012 00:00:00 7.73902 C 5.64 g/m*3 7.74 C 2.80592 km/h
834 22-03-2012 00:00:00 10.07666 C 6.73 g/m*3 10.08 C 3.77387 km/h
835 23-03-2012 00:00:00 11.69132 C 7.52 g/m*3 11.69 C 2.95729 km/h
836 24-03-2012 00:00:00 11.62674 C 7.38 g/m*3 11.63 C 2.56215 km/h
837 25-03-2012 00:00:00 12.80873 C 7.04 g/m*3 12.81 C 3.29964 km/h
838 26-03-2012 00:00:00 11.16806 C 5.93 g/m*3 11.17 C 3.51563 km/h
839 27-03-2012 00:00:00 11.10694 C 6.65 g/m*3 11.11 C 4.18021 km/h
840 28-03-2012 00:00:00 11.74201 C 7.1 g/m*3 11.74 C 3.72708 km/h
841 29-03-2012 00:00:00 9.58194 C 6.51 g/m*3 8.4 C 8.56007 km/h
842 30-03-2012 00:00:00 9.39062 C 7.16 g/m*3 8 C 9.48438 km/h
843 31-03-2012 00:00:00 7.98706 C 6.3 g/m*3 6.73 C 7.63427 km/h
844 01-04-2012 00:00:00 4.77396 C 4.26 g/m*3 4.77 C 4.45451 km/h
845 02-04-2012 00:00:00 6.64685 C 5.4 g/m*3 6.65 C 3.51643 km/h
846 03-04-2012 00:00:00 11.08125 C 6.34 g/m*3 11.08 C 3.84514 km/h
847 04-04-2012 00:00:00 9.89722 C 7.68 g/m*3 9.9 C 4.97083 km/h
848 05-04-2012 00:00:00 7.74514 C 6.58 g/m*3 7.75 C 4.3691 km/h
849 06-04-2012 00:00:00 7.88679 C 5.55 g/m*3 7.89 C 3.89321 km/h
850 07-04-2012 00:00:00 5.61389 C 5.15 g/m*3 4.49 C 5.80486 km/h
Sensor: Nr:Datum:Temp:Abs-Feuchte:Windchill:Wind:
Aussen-T/F 851 08-04-2012 00:00:00 5.19194 C 3.73 g/m*3 5.19 C 4.34725 km/h
852 09-04-2012 00:00:00 7.24583 C 6.56 g/m*3 7.25 C 4.80278 km/h
853 10-04-2012 00:00:00 11.25451 C 7.92 g/m*3 11.25 C 5.78993 km/h
854 11-04-2012 00:00:00 9.71215 C 6.72 g/m*3 9.19 C 5.81146 km/h
855 12-04-2012 00:00:00 6.41736 C 6.3 g/m*3 6.42 C 3.28576 km/h
856 13-04-2012 00:00:00 6.76632 C 6.2 g/m*3 6.77 C 3.36146 km/h
857 14-04-2012 00:00:00 7.83021 C 5.85 g/m*3 7.83 C 3.32292 km/h
858 15-04-2012 00:00:00 8.52361 C 6.33 g/m*3 7.06 C 9.00625 km/h
859 16-04-2012 00:00:00 5.92438 C 4.62 g/m*3 3.99 C 8.9624 km/h
860 17-04-2012 00:00:00 5.90382 C 4.31 g/m*3 5.03 C 5.20451 km/h
861 18-04-2012 00:00:00 8.72674 C 6.28 g/m*3 7.96 C 6.1816 km/h
862 19-04-2012 00:00:00 8.47422 C 6.89 g/m*3 8.47 C 4.56829 km/h
863 20-04-2012 00:00:00 7.07115 C 6.66 g/m*3 7.07 C 3.15337 km/h
864 21-04-2012 00:00:00 8.16701 C 6.8 g/m*3 7.41 C 5.84132 km/h
865 22-04-2012 00:00:00 7.84306 C 6.56 g/m*3 6.44 C 8.12708 km/h
866 23-04-2012 00:00:00 8.39097 C 6.75 g/m*3 7.92 C 5.03333 km/h
867 24-04-2012 00:00:00 8.89757 C 7.41 g/m*3 8.28 C 5.73542 km/h
868 25-04-2012 00:00:00 10.14167 C 7.42 g/m*3 9.44 C 6.77951 km/h
869 26-04-2012 00:00:00 11.47083 C 8.24 g/m*3 11.47 C 6.83507 km/h
870 27-04-2012 00:00:00 12.5625 C 9.11 g/m*3 12.56 C 2.90104 km/h
871 28-04-2012 00:00:00 18.10903 C 11.21 g/m*3 18.11 C 3.17847 km/h
872 29-04-2012 00:00:00 16.89826 C 10.53 g/m*3 16.9 C 4.97257 km/h
873 30-04-2012 00:00:00 17.93194 C 9.73 g/m*3 17.93 C 5.83958 km/h
874 01-05-2012 00:00:00 17.12465 C 10.46 g/m*3 17.12 C 5.35833 km/h
875 02-05-2012 00:00:00 15.24479 C 11.32 g/m*3 15.24 C 4.1625 km/h
Sensor: Nr:Datum:Temp:Abs-Feuchte:Windchill:Wind:
Aussen-T/F 876 03-05-2012 00:00:00 13.43472 C 9.03 g/m*3 13.43 C 4.52049 km/h
877 04-05-2012 00:00:00 14.57083 C 9.2 g/m*3 14.57 C 4.31979 km/h
878 05-05-2012 00:00:00 11.45069 C 9.57 g/m*3 11.45 C 2.0691 km/h
879 06-05-2012 00:00:00 10.57674 C 9.04 g/m*3 10.58 C 2.72743 km/h
880 07-05-2012 00:00:00 10.38681 C 8.05 g/m*3 10.39 C 2.83542 km/h
881 08-05-2012 00:00:00 13.89063 C 8.76 g/m*3 13.89 C 4.06285 km/h
882 09-05-2012 00:00:00 16.78229 C 11.72 g/m*3 16.78 C 4.3441 km/h
883 10-05-2012 00:00:00 19.11111 C 12.91 g/m*3 19.11 C 3.2934 km/h
884 11-05-2012 00:00:00 19.125 C 13.25 g/m*3 19.13 C 4.69688 km/h
885 12-05-2012 00:00:00 11.31289 C 7.13 g/m*3 11.31 C 6.93972 km/h
886 13-05-2012 00:00:00 9.38646 C 6.01 g/m*3 9.39 C 3.54444 km/h
887 14-05-2012 00:00:00 11.40799 C 6.45 g/m*3 11.41 C 3.29792 km/h
888 15-05-2012 00:00:00 9.5625 C 6.83 g/m*3 9.16 C 5.31528 km/h
889 16-05-2012 00:00:00 8.66597 C 6.56 g/m*3 7.74 C 6.74236 km/h
890 17-05-2012 00:00:00 9.38889 C 6.11 g/m*3 9.39 C 3.74201 km/h
891 18-05-2012 00:00:00 12.68299 C 8.58 g/m*3 12.68 C 3.73611 km/h
892 19-05-2012 00:00:00 15.71389 C 11.07 g/m*3 15.71 C 3.01667 km/h
893 20-05-2012 00:00:00 17.6684 C 11.84 g/m*3 17.67 C 2.85521 km/h
894 21-05-2012 00:00:00 18.51324 C 12.9 g/m*3 18.51 C 3.62056 km/h
895 22-05-2012 00:00:00 21.31944 C 13.69 g/m*3 21.32 C 4.20417 km/h
896 23-05-2012 00:00:00 18.79965 C 14.38 g/m*3 18.8 C 2.22951 km/h
897 24-05-2012 00:00:00 20.67596 C 13.27 g/m*3 20.68 C 3.73554 km/h
898 25-05-2012 00:00:00 19.43659 C 8.08 g/m*3 19.44 C 7.67038 km/h
899 26-05-2012 00:00:00 18.11007 C 8.4 g/m*3 18.11 C 5.16944 km/h
900 27-05-2012 00:00:00 18.05868 C 9.6 g/m*3 18.06 C 2.91215 km/h
Sensor: Nr:Datum:Temp:Abs-Feuchte:Windchill:Wind:
Aussen-T/F 901 28-05-2012 00:00:00 18.89167 C 10.37 g/m*3 18.89 C 3.94348 km/h
902 29-05-2012 00:00:00 18.3861 C 10.26 g/m*3 18.39 C 4.0695 km/h
903 30-05-2012 00:00:00 17.68438 C 11.87 g/m*3 17.68 C 3.49167 km/h
904 31-05-2012 00:00:00 16.03021 C 11.52 g/m*3 16.03 C 4.43785 km/h
905 01-06-2012 00:00:00 15.75909 C 10.21 g/m*3 15.76 C 6.05315 km/h
906 02-06-2012 00:00:00 15.19271 C 9.16 g/m*3 15.19 C 3.1559 km/h
907 03-06-2012 00:00:00 12.59011 C 9.82 g/m*3 12.59 C 2.24762 km/h
908 04-06-2012 00:00:00 13.31389 C 9.93 g/m*3 13.31 C 5.88403 km/h
909 05-06-2012 00:00:00 12.15312 C 7.43 g/m*3 12.15 C 4.47674 km/h
910 06-06-2012 00:00:00 13.09444 C 9.9 g/m*3 13.09 C 3.34722 km/h
911 07-06-2012 00:00:00 16.45799 C 12.45 g/m*3 16.46 C 1.94236 km/h
912 08-06-2012 00:00:00 17.34097 C 10.69 g/m*3 17.34 C 7.78056 km/h
913 09-06-2012 00:00:00 14.79028 C 8.37 g/m*3 14.79 C 6.97674 km/h
914 10-06-2012 00:00:00 15.29514 C 8.7 g/m*3 15.3 C 3.03576 km/h
915 11-06-2012 00:00:00 14.57014 C 10.58 g/m*3 14.57 C 2.15208 km/h
916 12-06-2012 00:00:00 14.40729 C 10.65 g/m*3 14.41 C 3.45451 km/h
917 13-06-2012 00:00:00 12.57122 C 10.25 g/m*3 12.57 C 3.38081 km/h
918 14-06-2012 00:00:00 14.15694 C 9.93 g/m*3 14.16 C 1.8191 km/h
919 15-06-2012 00:00:00 16.11806 C 11.68 g/m*3 16.12 C 2.80417 km/h
920 16-06-2012 00:00:00 15.40799 C 12.19 g/m*3 15.41 C 2.89306 km/h
921 17-06-2012 00:00:00 17.28021 C 10.37 g/m*3 17.28 C 5.15313 km/h
922 18-06-2012 00:00:00 18.57292 C 11.77 g/m*3 18.57 C 4.89653 km/h
923 19-06-2012 00:00:00 17.44028 C 12.26 g/m*3 17.44 C 1.76389 km/h
924 20-06-2012 00:00:00 16.35833 C 13.49 g/m*3 16.36 C 1.52674 km/h
925 21-06-2012 00:00:00 18.41354 C 14.08 g/m*3 18.41 C 2.59965 km/h
Sensor: Nr:Datum:Temp:Abs-Feuchte:Windchill:Wind:
Aussen-T/F 926 22-06-2012 00:00:00 16.36181 C 10.54 g/m*3 16.36 C 7.0059 km/h
927 23-06-2012 00:00:00 16.63472 C 10.11 g/m*3 16.63 C 5.14444 km/h
928 24-06-2012 00:00:00 14.73507 C 10.4 g/m*3 14.74 C 6.91354 km/h
929 25-06-2012 00:00:00 15.09028 C 10.16 g/m*3 15.09 C 8.34479 km/h
930 26-06-2012 00:00:00 16.43125 C 10.29 g/m*3 16.43 C 3.31285 km/h
931 27-06-2012 00:00:00 18.07569 C 13.09 g/m*3 18.08 C 3.76944 km/h
932 28-06-2012 00:00:00 21.87465 C 15.47 g/m*3 21.87 C 2.8309 km/h
933 29-06-2012 00:00:00 20.49063 C 16.02 g/m*3 20.49 C 2.96215 km/h
934 30-06-2012 00:00:00 20.14965 C 13.71 g/m*3 20.15 C 2.2625 km/h
935 01-07-2012 00:00:00 17.98889 C 12.48 g/m*3 17.99 C 3.47257 km/h
936 02-07-2012 00:00:00 15.24444 C 11.26 g/m*3 15.24 C 0.73889 km/h
937 03-07-2012 00:00:00 18.02153 C 11.83 g/m*3 18.02 C 2.55382 km/h
938 04-07-2012 00:00:00 19.87465 C 13.12 g/m*3 19.87 C 2.27778 km/h
939 05-07-2012 00:00:00 19.09722 C 15.03 g/m*3 19.1 C 0.74479 km/h
940 06-07-2012 00:00:00 19.21042 C 13.57 g/m*3 19.21 C 3.32431 km/h
941 07-07-2012 00:00:00 19.57743 C 12.21 g/m*3 19.58 C 3.63854 km/h
942 08-07-2012 00:00:00 17.84097 C 12.38 g/m*3 17.84 C 5.58993 km/h
943 09-07-2012 00:00:00 18.63611 C 11.51 g/m*3 18.64 C 6.85972 km/h
944 10-07-2012 00:00:00 19.1441 C 12.62 g/m*3 19.14 C 4.02951 km/h
945 11-07-2012 00:00:00 16.03553 C 10.88 g/m*3 16.04 C 5.68791 km/h
946 12-07-2012 00:00:00 14.8191 C 9.88 g/m*3 14.82 C 8.20799 km/h
947 13-07-2012 00:00:00 15.50417 C 11.84 g/m*3 15.5 C 4.44132 km/h
948 14-07-2012 00:00:00 15.27708 C 11.45 g/m*3 15.28 C 6.33438 km/h
949 15-07-2012 00:00:00 14.52014 C 10.82 g/m*3 14.52 C 5.16597 km/h
950 16-07-2012 00:00:00 15.02292 C 10.17 g/m*3 15.02 C 7.63264 km/h
Sensor: Nr:Datum:Temp:Abs-Feuchte:Windchill:Wind:
Aussen-T/F 951 17-07-2012 00:00:00 17.55296 C 11.48 g/m*3 17.55 C 9.27003 km/h
952 18-07-2012 00:00:00 19.90563 C 12.45 g/m*3 19.91 C 5.63345 km/h
953 19-07-2012 00:00:00 18.1593 C 10.92 g/m*3 18.16 C 6.90807 km/h
954 20-07-2012 00:00:00 14.84982 C 10.88 g/m*3 14.85 C 2.54767 km/h
955 21-07-2012 00:00:00 15.04167 C 10.37 g/m*3 15.04 C 3.48403 km/h
956 22-07-2012 00:00:00 14.62049 C 9.34 g/m*3 14.62 C 2.64549 km/h
957 23-07-2012 00:00:00 17.15069 C 9.94 g/m*3 17.15 C 3.31076 km/h
958 24-07-2012 00:00:00 19.81701 C 12.05 g/m*3 19.82 C 3.02049 km/h
959 25-07-2012 00:00:00 22.08445 C 14.21 g/m*3 22.08 C 2.1053 km/h
960 26-07-2012 00:00:00 23.10764 C 15.14 g/m*3 23.11 C 1.99514 km/h
961 27-07-2012 00:00:00 22.26167 C 16.31 g/m*3 22.26 C 2.37143 km/h
962 28-07-2012 00:00:00 19.03507 C 15.12 g/m*3 19.04 C 2.04826 km/h
963 29-07-2012 00:00:00 17.61875 C 11.35 g/m*3 17.62 C 4.525 km/h
964 30-07-2012 00:00:00 16.17396 C 9.66 g/m*3 16.17 C 5.72396 km/h
965 31-07-2012 00:00:00 16.33993 C 11.03 g/m*3 16.34 C 3.13403 km/h
966 01-08-2012 00:00:00 20.08194 C 13.03 g/m*3 20.08 C 3.05833 km/h
967 02-08-2012 00:00:00 20.75938 C 13.57 g/m*3 20.76 C 4.57847 km/h
968 03-08-2012 00:00:00 19.31771 C 11.89 g/m*3 19.32 C 4.20035 km/h
969 04-08-2012 00:00:00 19.1 C 11.8 g/m*3 19.1 C 3.13889 km/h
970 05-08-2012 00:00:00 19.0875 C 13.66 g/m*3 19.09 C 2.04722 km/h
971 06-08-2012 00:00:00 18.40312 C 12.35 g/m*3 18.4 C 5.67882 km/h
972 07-08-2012 00:00:00 17.15556 C 10.69 g/m*3 17.16 C 5.52535 km/h
973 08-08-2012 00:00:00 16.59132 C 11.2 g/m*3 16.59 C 1.95243 km/h
974 09-08-2012 00:00:00 18.49479 C 12.19 g/m*3 18.49 C 3.35035 km/h
975 10-08-2012 00:00:00 17.33299 C 10.54 g/m*3 17.33 C 3.19965 km/h
Sensor: Nr:Datum:Temp:Abs-Feuchte:Windchill:Wind:
Aussen-T/F 976 11-08-2012 00:00:00 16.29444 C 10.16 g/m*3 16.29 C 3.24028 km/h
977 12-08-2012 00:00:00 17.40486 C 10.17 g/m*3 17.4 C 3.59653 km/h
978 13-08-2012 00:00:00 18.22326 C 11.39 g/m*3 18.22 C 2.33056 km/h
979 14-08-2012 00:00:00 19.78993 C 13.49 g/m*3 19.79 C 1.41667 km/h
980 15-08-2012 00:00:00 22.31354 C 14.02 g/m*3 22.31 C 2.55694 km/h
981 16-08-2012 00:00:00 21.27535 C 12.53 g/m*3 21.28 C 3.72917 km/h
982 17-08-2012 00:00:00 20.12986 C 12.21 g/m*3 20.13 C 2.75521 km/h
983 18-08-2012 00:00:00 23.0066 C 13.86 g/m*3 23.01 C 3.18229 km/h
984 19-08-2012 00:00:00 24.67083 C 15.81 g/m*3 24.67 C 2.43264 km/h
985 20-08-2012 00:00:00 23.43229 C 16.92 g/m*3 23.43 C 1.96354 km/h
986 21-08-2012 00:00:00 22.65105 C 16.48 g/m*3 22.65 C 1.97483 km/h
987 22-08-2012 00:00:00 20.95729 C 11.81 g/m*3 20.96 C 4.26389 km/h
988 23-08-2012 00:00:00 17.78194 C 9.87 g/m*3 17.78 C 2.24444 km/h
989 24-08-2012 00:00:00 18.61514 C 12.97 g/m*3 18.62 C 2.49155 km/h
990 25-08-2012 00:00:00 18.46493 C 12.42 g/m*3 18.46 C 5.00035 km/h
991 26-08-2012 00:00:00 16.26829 C 10.84 g/m*3 16.27 C 8.77944 km/h
992 27-08-2012 00:00:00 16.33728 C 10.98 g/m*3 16.34 C 2.63066 km/h
993 28-08-2012 00:00:00 18.01812 C 11.48 g/m*3 18.02 C 3.66864 km/h
994 29-08-2012 00:00:00 20.02396 C 13.42 g/m*3 20.02 C 2.13264 km/h
995 30-08-2012 00:00:00 17.48889 C 12.07 g/m*3 17.49 C 3.22465 km/h
996 31-08-2012 00:00:00 13.93646 C 10.2 g/m*3 13.94 C 6.31146 km/h
997 01-09-2012 00:00:00 14.49236 C 9.5 g/m*3 14.49 C 4.74896 km/h
998 02-09-2012 00:00:00 13.96285 C 9.9 g/m*3 13.96 C 1.82257 km/h
999 03-09-2012 00:00:00 16.22222 C 11.01 g/m*3 16.22 C 2.96493 km/h
1000 04-09-2012 00:00:00 16.86259 C 11.77 g/m*3 16.86 C 1.64021 km/h
Sensor: Nr:Datum:Temp:Abs-Feuchte:Windchill:Wind:
Aussen-T/F 1001 05-09-2012 00:00:00 16.4125 C 11.14 g/m*3 16.41 C 3.33681 km/h
1002 06-09-2012 00:00:00 14.61525 C 8.89 g/m*3 14.62 C 2.50035 km/h
1003 07-09-2012 00:00:00 14.4309 C 9.14 g/m*3 14.43 C 2.39931 km/h
1004 08-09-2012 00:00:00 16.83403 C 10.04 g/m*3 16.83 C 2.29444 km/h
1005 09-09-2012 00:00:00 18.54722 C 10.81 g/m*3 18.55 C 3.24271 km/h
1006 10-09-2012 00:00:00 19.67847 C 11.4 g/m*3 19.68 C 3.52361 km/h
1007 11-09-2012 00:00:00 17.74028 C 12.66 g/m*3 17.74 C 5.06389 km/h
1008 12-09-2012 00:00:00 11.13646 C 9.43 g/m*3 11.14 C 3.28194 km/h
1009 13-09-2012 00:00:00 10.78611 C 8.92 g/m*3 10.79 C 1.61944 km/h
1010 14-09-2012 00:00:00 13.01424 C 9.51 g/m*3 13.01 C 8.50729 km/h
1011 15-09-2012 00:00:00 13.44514 C 10.31 g/m*3 13.45 C 2.61597 km/h
1012 16-09-2012 00:00:00 13.24236 C 9.85 g/m*3 13.24 C 1.95903 km/h
1013 17-09-2012 00:00:00 15.15729 C 10.75 g/m*3 15.16 C 2.24271 km/h
1014 18-09-2012 00:00:00 14.10868 C 10.23 g/m*3 14.11 C 3.36389 km/h
1015 19-09-2012 00:00:00 11.7684 C 7.38 g/m*3 11.77 C 5.62153 km/h
1016 20-09-2012 00:00:00 9.9566 C 6.83 g/m*3 9.96 C 3.81424 km/h
1017 21-09-2012 00:00:00 10.62118 C 7.77 g/m*3 10.62 C 2.10278 km/h
1018 22-09-2012 00:00:00 11.53611 C 8.31 g/m*3 11.54 C 5.85486 km/h
1019 23-09-2012 00:00:00 11.58819 C 8.16 g/m*3 11.59 C 3.43542 km/h
1020 24-09-2012 00:00:00 14.89201 C 10.77 g/m*3 14.89 C 6.19201 km/h
1021 25-09-2012 00:00:00 12.86597 C 9.91 g/m*3 12.87 C 3.00486 km/h
1022 26-09-2012 00:00:00 12.27917 C 10.31 g/m*3 12.28 C 0.45625 km/h
1023 27-09-2012 00:00:00 12.68611 C 9.87 g/m*3 12.69 C 4.77465 km/h
1024 28-09-2012 00:00:00 12.56701 C 9.49 g/m*3 12.57 C 5.41771 km/h
1025 29-09-2012 00:00:00 11.68819 C 8.78 g/m*3 11.69 C 4.77674 km/h
Sensor: Nr:Datum:Temp:Abs-Feuchte:Windchill:Wind:
Aussen-T/F 1026 30-09-2012 00:00:00 9.30035 C 8.03 g/m*3 9.3 C 1.28924 km/h
1027 01-10-2012 00:00:00 9.46319 C 7.74 g/m*3 9.46 C 3.12986 km/h
1028 02-10-2012 00:00:00 12.25764 C 9.17 g/m*3 12.26 C 3.29653 km/h
1029 03-10-2012 00:00:00 14.55312 C 10.23 g/m*3 14.55 C 6.72014 km/h
1030 04-10-2012 00:00:00 12.89722 C 9.38 g/m*3 12.9 C 9.02361 km/h
1031 05-10-2012 00:00:00 13.57986 C 10.01 g/m*3 13.58 C 12.05486 km/h
1032 06-10-2012 00:00:00 14.99469 C 10.77 g/m*3 14.99 C 9.95714 km/h
1033 07-10-2012 00:00:00 10.63669 C 8.39 g/m*3 10.64 C 3.51583 km/h
1034 08-10-2012 00:00:00 8.1958 C 7.66 g/m*3 8.2 C 0.7395 km/h
1035 09-10-2012 00:00:00 10.60348 C 8.05 g/m*3 10.6 C 4.4204 km/h
1036 10-10-2012 00:00:00 6.21146 C 6.73 g/m*3 6.21 C 1.03958 km/h
1037 11-10-2012 00:00:00 6.67361 C 7 g/m*3 6.67 C 0.92778 km/h
1038 12-10-2012 00:00:00 10.79653 C 8.89 g/m*3 10.8 C 3.08889 km/h
1039 13-10-2012 00:00:00 9.08472 C 7.61 g/m*3 9.08 C 3.02778 km/h
1040 14-10-2012 00:00:00 8.15833 C 7.57 g/m*3 8.16 C 2.57882 km/h
1041 15-10-2012 00:00:00 7.43264 C 7.4 g/m*3 7.43 C 4.62292 km/h
1042 16-10-2012 00:00:00 7.85556 C 7.35 g/m*3 7.86 C 3.77708 km/h
1043 17-10-2012 00:00:00 10.85972 C 8.95 g/m*3 10.86 C 2.29583 km/h
1044 18-10-2012 00:00:00 14.37569 C 10.54 g/m*3 14.38 C 2.51806 km/h
1045 19-10-2012 00:00:00 14.37187 C 11 g/m*3 14.37 C 0.69618 km/h
1046 20-10-2012 00:00:00 13.74722 C 11.04 g/m*3 13.75 C 0.03889 km/h
1047 21-10-2012 00:00:00 13.32917 C 10.84 g/m*3 13.33 C 0.27222 km/h
1048 22-10-2012 00:00:00 11.79062 C 9.89 g/m*3 11.79 C 0 km/h
1049 23-10-2012 00:00:00 11.38403 C 9.01 g/m*3 11.38 C 1.95799 km/h
1050 24-10-2012 00:00:00 9.71528 C 8.48 g/m*3 9.72 C 0.81181 km/h
Sensor: Nr:Datum:Temp:Abs-Feuchte:Windchill:Wind:
Aussen-T/F 1051 25-10-2012 00:00:00 9.9441 C 8.7 g/m*3 9.94 C 1.19514 km/h
1052 26-10-2012 00:00:00 6.73542 C 7.11 g/m*3 6.74 C 3.17743 km/h
1053 27-10-2012 00:00:00 2.98993 C 4.65 g/m*3 0.8 C 7.91354 km/h
1054 28-10-2012 00:00:00 0.51181 C 4.52 g/m*3 0.51 C 1.97847 km/h
1055 29-10-2012 00:00:00 0.69306 C 4.69 g/m*3 0.69 C 2.28194 km/h
1056 30-10-2012 00:00:00 6.0566 C 6.62 g/m*3 4.29 C 8.35451 km/h
1057 31-10-2012 00:00:00 5.97118 C 6.61 g/m*3 5.97 C 1.67535 km/h
1058 01-11-2012 00:00:00 7.64965 C 6.94 g/m*3 7.65 C 4.97917 km/h
1059 02-11-2012 00:00:00 7.75417 C 6.62 g/m*3 6.3 C 8.2934 km/h
1060 03-11-2012 00:00:00 7.38542 C 7.47 g/m*3 7.39 C 3.34514 km/h
1061 04-11-2012 00:00:00 7.74028 C 7.51 g/m*3 7.74 C 2.64236 km/h
1062 05-11-2012 00:00:00 8.00382 C 6.98 g/m*3 7.32 C 5.5125 km/h
1063 06-11-2012 00:00:00 6.03264 C 6.38 g/m*3 5.16 C 5.26076 km/h
1064 07-11-2012 00:00:00 8.52535 C 7.42 g/m*3 6.72 C 10.84757 km/h
1065 08-11-2012 00:00:00 8.82222 C 7.04 g/m*3 7.73 C 7.52292 km/h
1066 09-11-2012 00:00:00 8.19861 C 7.03 g/m*3 8.2 C 3.10694 km/h
1067 10-11-2012 00:00:00 8.89201 C 8.14 g/m*3 8.89 C 0.45625 km/h
1068 11-11-2012 00:00:00 8.24097 C 7.75 g/m*3 8.24 C 0.73924 km/h
1069 12-11-2012 00:00:00 5.70868 C 6.31 g/m*3 5.71 C 3.19549 km/h
1070 13-11-2012 00:00:00 3.26076 C 5.7 g/m*3 3.26 C 0.92292 km/h
1071 14-11-2012 00:00:00 2.60312 C 5.46 g/m*3 2.6 C 1.14618 km/h
1072 15-11-2012 00:00:00 4.53958 C 5.82 g/m*3 4.54 C 1.51146 km/h
1073 16-11-2012 00:00:00 3.22222 C 5.28 g/m*3 3.22 C 2.14722 km/h
1074 17-11-2012 00:00:00 4.33472 C 6.08 g/m*3 4.33 C 2.10972 km/h
1075 18-11-2012 00:00:00 7.54704 C 7.71 g/m*3 7.55 C 0.36794 km/h
Sensor: Nr:Datum:Temp:Abs-Feuchte:Windchill:Wind:
Aussen-T/F 1076 19-11-2012 00:00:00 7.68403 C 7.7 g/m*3 7.68 C 0.77222 km/h
1077 20-11-2012 00:00:00 5.27188 C 6.48 g/m*3 5.27 C 3.14861 km/h
1078 21-11-2012 00:00:00 4.38681 C 5.99 g/m*3 4.39 C 3.3559 km/h
1079 22-11-2012 00:00:00 5.51111 C 6.67 g/m*3 5.51 C 2.11458 km/h
1080 23-11-2012 00:00:00 6.88472 C 7.16 g/m*3 6.88 C 1.10556 km/h
1081 24-11-2012 00:00:00 9.16042 C 7.96 g/m*3 9.16 C 1.59861 km/h
1082 25-11-2012 00:00:00 10.6066 C 7.12 g/m*3 9.06 C 11.94444 km/h
1083 26-11-2012 00:00:00 6.01493 C 6.93 g/m*3 6.01 C 1.30035 km/h
1084 27-11-2012 00:00:00 7.67986 C 7.22 g/m*3 7.68 C 1.75139 km/h
1085 28-11-2012 00:00:00 5.5184 C 6.41 g/m*3 5.52 C 3.27431 km/h
1086 29-11-2012 00:00:00 4.01319 C 5.52 g/m*3 1.9 C 8.29063 km/h
1087 30-11-2012 00:00:00 1.44375 C 5.03 g/m*3 1.44 C 1.75 km/h
1088 01-12-2012 00:00:00 -0.39861 C 4.43 g/m*3 -0.4 C 2.91806 km/h
1089 02-12-2012 00:00:00 2.39375 C 5.11 g/m*3 0.12 C 7.84375 km/h
1090 03-12-2012 00:00:00 2.27222 C 5.07 g/m*3 0.48 C 6.28542 km/h
1091 04-12-2012 00:00:00 3.75312 C 5.6 g/m*3 1.48 C 8.7184 km/h
1092 05-12-2012 00:00:00 2.86667 C 5.34 g/m*3 2.87 C 4.58889 km/h
1093 06-12-2012 00:00:00 0.5625 C 4.27 g/m*3 -1.72 C 6.90451 km/h

Maximal/Minimal-Werte vom 07.12.2009 - 06.12.2012

Sensor Min Max Avg
Temp
(Aussen-T/F)
-16.4 °C
20-12-2009  01:30:01
36.9 °C
19-08-2012  16:30:00
10.52 °C
Abs-Feuchte
(Aussen-T/F)
1.12 g/m*3
19-12-2009  00:00:00
16.92 g/m*3
20-08-2012  00:00:00
7.27 g/m*3
Windchill
(Aussen-T/F)
-12.79 C
19-12-2009  00:00:00
29.26 C
10-07-2010  00:00:00
10.31 C

Die Daten stammen von einer Davis Vantage Pro 2 Wetter-Station und werden unter Linux mit der Software wview2wettercgi und aufbereitet. Alle Angaben erfolgen ohne Gewähr für ihre Vollständigkeit oder Richtigkeit.
Kontakt: Rainer Krienke krienke@uni-koblenz.de . Meine Webseiten an der Uni Koblenz oder privat.
Version: $Revision: 0.78 $